Wetterdaten: Donnerstag, 05.03.2020
Datum Zeit Temp. Aussen Temp. o. S. Temp +5cm Feuchte Auss Luftdruck Regen Sonnenschein Regendauer Solar Windben Empfang
05.03.2020 00:00 5,0 C 3,9 C 3,9 C 90 % 1007,8 hPa 0,0 l/m 0 min 0 min 0 W/m 0,0 km/h (0 Bft) 100,00 %
05.03.2020 00:02 5,0 C 3,9 C 3,9 C 90 % 1007,8 hPa 0,0 l/m 0 min 0 min 0 W/m 0,0 km/h (0 Bft) 12,50 %
05.03.2020 00:04 4,9 C 3,9 C 3,9 C 90 % 1007,8 hPa 0,0 l/m 0 min 0 min 0 W/m 0,0 km/h (0 Bft) 82,50 %
05.03.2020 00:08 4,9 C 4,4 C 3,9 C 90 % 1007,7 hPa 0,0 l/m 0 min 0 min 0 W/m 19,3 km/h (3 Bft) 97,87 %
05.03.2020 00:10 4,9 C 4,4 C 3,9 C 90 % 1007,7 hPa 0,0 l/m 0 min 0 min 0 W/m 12,9 km/h (3 Bft) 97,87 %
05.03.2020 00:12 4,9 C 4,4 C 3,9 C 90 % 1007,7 hPa 0,0 l/m 0 min 0 min 0 W/m 0,0 km/h (0 Bft) 95,65 %
05.03.2020 00:14 4,9 C 4,4 C 3,9 C 91 % 1007,6 hPa 0,0 l/m 0 min 0 min 0 W/m 3,2 km/h (1 Bft) 97,87 %
05.03.2020 00:16 4,9 C 4,4 C 3,9 C 91 % 1007,6 hPa 0,0 l/m 0 min 0 min 0 W/m 0,0 km/h (0 Bft) 97,87 %
05.03.2020 00:18 4,9 C 4,4 C 3,9 C 91 % 1007,6 hPa 0,0 l/m 0 min 0 min 0 W/m 0,0 km/h (0 Bft) 97,87 %
05.03.2020 00:20 4,9 C 4,4 C 3,9 C 91 % 1007,5 hPa 0,0 l/m 0 min 0 min 0 W/m 0,0 km/h (0 Bft) 97,87 %
05.03.2020 00:22 4,9 C 4,4 C 3,9 C 91 % 1007,4 hPa 0,0 l/m 0 min 0 min 0 W/m 0,0 km/h (0 Bft) 95,74 %
05.03.2020 00:24 4,9 C 3,9 C 3,9 C 91 % 1007,3 hPa 0,0 l/m 0 min 0 min 0 W/m 0,0 km/h (0 Bft) 97,83 %
05.03.2020 00:26 4,9 C 3,9 C 3,3 C 91 % 1007,3 hPa 0,0 l/m 0 min 0 min 0 W/m 0,0 km/h (0 Bft) 97,87 %
05.03.2020 00:28 4,9 C 3,9 C 3,3 C 91 % 1007,2 hPa 0,0 l/m 0 min 0 min 0 W/m 0,0 km/h (0 Bft) 93,62 %
05.03.2020 00:30 4,9 C 3,9 C 3,3 C 91 % 1007,2 hPa 0,0 l/m 0 min 0 min 0 W/m 0,0 km/h (0 Bft) 97,87 %
05.03.2020 00:32 4,8 C 3,9 C 3,3 C 91 % 1007,1 hPa 0,0 l/m 0 min 0 min 0 W/m 0,0 km/h (0 Bft) 95,74 %
05.03.2020 00:34 4,8 C 3,9 C 3,3 C 91 % 1007,1 hPa 0,0 l/m 0 min 0 min 0 W/m 0,0 km/h (0 Bft) 100,00 %
05.03.2020 00:36 4,8 C 3,9 C 3,3 C 91 % 1007,1 hPa 0,0 l/m 0 min 0 min 0 W/m 0,0 km/h (0 Bft) 97,83 %
05.03.2020 00:38 4,8 C 4,4 C 3,3 C 91 % 1007,1 hPa 0,0 l/m 0 min 0 min 0 W/m 0,0 km/h (0 Bft) 100,00 %
05.03.2020 00:40 4,8 C 4,4 C 3,3 C 91 % 1007,0 hPa 0,0 l/m 0 min 0 min 0 W/m 0,0 km/h (0 Bft) 97,87 %
05.03.2020 00:42 4,8 C 3,9 C 3,3 C 91 % 1007,1 hPa 0,0 l/m 0 min 0 min 0 W/m 0,0 km/h (0 Bft) 97,87 %
05.03.2020 00:44 4,8 C 3,9 C 3,9 C 91 % 1007,0 hPa 0,0 l/m 0 min 0 min 0 W/m 0,0 km/h (0 Bft) 100,00 %
05.03.2020 00:46 4,8 C 4,4 C 3,9 C 91 % 1007,0 hPa 0,0 l/m 0 min 0 min 0 W/m 0,0 km/h (0 Bft) 100,00 %
05.03.2020 00:48 4,8 C 4,4 C 3,9 C 91 % 1007,0 hPa 0,0 l/m 0 min 0 min 0 W/m 0,0 km/h (0 Bft) 100,00 %
05.03.2020 00:50 4,8 C 4,4 C 3,9 C 91 % 1007,0 hPa 0,0 l/m 0 min 0 min 0 W/m 0,0 km/h (0 Bft) 100,00 %
05.03.2020 00:52 4,8 C 4,4 C 3,9 C 91 % 1007,0 hPa 0,0 l/m 0 min 0 min 0 W/m 0,0 km/h (0 Bft) 100,00 %
05.03.2020 00:54 4,8 C 4,4 C 3,9 C 91 % 1006,9 hPa 0,0 l/m 0 min 0 min 0 W/m 16,1 km/h (3 Bft) 100,00 %
05.03.2020 00:56 4,8 C 4,4 C 3,9 C 91 % 1006,9 hPa 0,0 l/m 0 min 0 min 0 W/m 12,9 km/h (3 Bft) 97,87 %
05.03.2020 00:58 4,8 C 4,4 C 3,9 C 91 % 1006,9 hPa 0,0 l/m 0 min 0 min 0 W/m 16,1 km/h (3 Bft) 95,74 %
05.03.2020 01:00 4,8 C 4,4 C 3,9 C 91 % 1006,8 hPa 0,0 l/m 0 min 0 min 0 W/m 12,9 km/h (3 Bft) 93,48 %
05.03.2020 01:02 4,8 C 4,4 C 3,9 C 91 % 1006,8 hPa 0,0 l/m 0 min 0 min 0 W/m 12,9 km/h (3 Bft) 95,74 %
05.03.2020 01:04 4,8 C 4,4 C 3,9 C 91 % 1006,8 hPa 0,0 l/m 0 min 0 min 0 W/m 0,0 km/h (0 Bft) 97,87 %
05.03.2020 01:06 4,8 C 4,4 C 3,9 C 91 % 1006,8 hPa 0,0 l/m 0 min 0 min 0 W/m 0,0 km/h (0 Bft) 93,62 %
05.03.2020 01:08 4,8 C 4,4 C 3,9 C 91 % 1006,7 hPa 0,0 l/m 0 min 0 min 0 W/m 0,0 km/h (0 Bft) 97,87 %
05.03.2020 01:10 4,8 C 4,4 C 3,9 C 91 % 1006,8 hPa 0,0 l/m 0 min 0 min 0 W/m 6,4 km/h (2 Bft) 97,87 %
05.03.2020 01:12 4,8 C 4,4 C 3,9 C 91 % 1006,7 hPa 0,0 l/m 0 min 0 min 0 W/m 6,4 km/h (2 Bft) 97,83 %
05.03.2020 01:14 4,8 C 4,4 C 3,9 C 91 % 1006,7 hPa 0,0 l/m 0 min 0 min 0 W/m 0,0 km/h (0 Bft) 97,87 %
05.03.2020 01:16 4,8 C 4,4 C 3,9 C 91 % 1006,6 hPa 0,0 l/m 0 min 0 min 0 W/m 0,0 km/h (0 Bft) 93,62 %
05.03.2020 01:18 4,8 C 4,4 C 3,9 C 91 % 1006,5 hPa 0,0 l/m 0 min 0 min 0 W/m 0,0 km/h (0 Bft) 97,87 %
05.03.2020 01:20 4,9 C 4,4 C 3,9 C 91 % 1006,5 hPa 0,0 l/m 0 min 0 min 0 W/m 3,2 km/h (1 Bft) 97,87 %
05.03.2020 01:22 4,9 C 4,4 C 3,9 C 91 % 1006,5 hPa 0,0 l/m 0 min 0 min 0 W/m 0,0 km/h (0 Bft) 97,87 %
05.03.2020 01:24 4,9 C 4,4 C 3,9 C 91 % 1006,5 hPa 0,0 l/m 0 min 0 min 0 W/m 0,0 km/h (0 Bft) 97,83 %
05.03.2020 01:26 4,9 C 4,4 C 3,9 C 91 % 1006,5 hPa 0,0 l/m 0 min 0 min 0 W/m 0,0 km/h (0 Bft) 97,87 %
05.03.2020 01:28 4,9 C 4,4 C 3,9 C 91 % 1006,4 hPa 0,0 l/m 0 min 0 min 0 W/m 0,0 km/h (0 Bft) 97,87 %
05.03.2020 01:30 4,9 C 4,4 C 3,9 C 91 % 1006,4 hPa 0,0 l/m 0 min 0 min 0 W/m 3,2 km/h (1 Bft) 97,87 %
05.03.2020 01:32 4,9 C 4,4 C 3,9 C 91 % 1006,5 hPa 0,0 l/m 0 min 0 min 0 W/m 0,0 km/h (0 Bft) 97,87 %
05.03.2020 01:34 4,9 C 4,4 C 3,9 C 91 % 1006,5 hPa 0,0 l/m 0 min 0 min 0 W/m 0,0 km/h (0 Bft) 95,65 %
05.03.2020 01:36 4,9 C 4,4 C 3,9 C 91 % 1006,5 hPa 0,0 l/m 0 min 0 min 0 W/m 12,9 km/h (3 Bft) 97,87 %
05.03.2020 01:38 5,0 C 4,4 C 3,9 C 91 % 1006,4 hPa 0,0 l/m 0 min 2 min 0 W/m 12,9 km/h (3 Bft) 97,87 %
05.03.2020 01:40 5,0 C 4,4 C 3,9 C 90 % 1006,4 hPa 0,0 l/m 0 min 2 min 0 W/m 12,9 km/h (3 Bft) 100,00 %
05.03.2020 01:42 5,0 C 3,9 C 3,9 C 90 % 1006,4 hPa 0,0 l/m 0 min 2 min 0 W/m 0,0 km/h (0 Bft) 100,00 %
05.03.2020 01:44 5,1 C 3,9 C 3,3 C 90 % 1006,3 hPa 0,0 l/m 0 min 2 min 0 W/m 3,2 km/h (1 Bft) 100,00 %
05.03.2020 01:46 5,1 C 3,9 C 3,3 C 90 % 1006,3 hPa 0,0 l/m 0 min 2 min 0 W/m 25,7 km/h (4 Bft) 93,48 %
05.03.2020 01:48 5,1 C 3,9 C 3,3 C 90 % 1006,3 hPa 0,0 l/m 0 min 2 min 0 W/m 6,4 km/h (2 Bft) 100,00 %
05.03.2020 01:50 5,1 C 3,9 C 3,3 C 90 % 1006,3 hPa 0,0 l/m 0 min 2 min 0 W/m 19,3 km/h (3 Bft) 100,00 %
05.03.2020 01:52 5,1 C 3,9 C 3,3 C 90 % 1006,2 hPa 0,0 l/m 0 min 2 min 0 W/m 19,3 km/h (3 Bft) 97,87 %
05.03.2020 01:54 5,1 C 3,9 C 3,3 C 90 % 1006,2 hPa 0,0 l/m 0 min 2 min 0 W/m 22,5 km/h (4 Bft) 97,87 %
05.03.2020 01:56 5,1 C 3,9 C 3,3 C 91 % 1006,2 hPa 0,0 l/m 0 min 2 min 0 W/m 12,9 km/h (3 Bft) 100,00 %
05.03.2020 01:58 5,1 C 3,9 C 3,3 C 91 % 1006,1 hPa 0,0 l/m 0 min 2 min 0 W/m 16,1 km/h (3 Bft) 97,83 %
05.03.2020 02:00 5,1 C 3,9 C 3,3 C 91 % 1006,0 hPa 0,0 l/m 0 min 2 min 0 W/m 0,0 km/h (0 Bft) 100,00 %
05.03.2020 02:02 5,1 C 3,3 C 3,3 C 91 % 1006,0 hPa 0,0 l/m 0 min 2 min 0 W/m 0,0 km/h (0 Bft) 100,00 %
05.03.2020 02:04 5,1 C 3,3 C 3,3 C 91 % 1005,9 hPa 0,2 l/m 0 min 2 min 0 W/m 19,3 km/h (3 Bft) 100,00 %
05.03.2020 02:06 5,1 C 3,3 C 3,3 C 91 % 1005,8 hPa 0,0 l/m 0 min 2 min 0 W/m 19,3 km/h (3 Bft) 97,87 %
05.03.2020 02:08 5,1 C 3,3 C 3,3 C 91 % 1005,8 hPa 0,0 l/m 0 min 2 min 0 W/m 22,5 km/h (4 Bft) 97,87 %
05.03.2020 02:10 5,1 C 3,3 C 2,8 C 91 % 1005,9 hPa 0,0 l/m 0 min 2 min 0 W/m 19,3 km/h (3 Bft) 100,00 %
05.03.2020 02:12 5,1 C 3,3 C 2,8 C 91 % 1005,9 hPa 0,0 l/m 0 min 2 min 0 W/m 16,1 km/h (3 Bft) 100,00 %
05.03.2020 02:14 5,1 C 3,3 C 2,8 C 91 % 1005,9 hPa 0,0 l/m 0 min 2 min 0 W/m 3,2 km/h (1 Bft) 97,87 %
05.03.2020 02:16 5,1 C 3,3 C 2,8 C 91 % 1005,8 hPa 0,0 l/m 0 min 2 min 0 W/m 16,1 km/h (3 Bft) 100,00 %
05.03.2020 02:18 5,1 C 3,3 C 2,8 C 91 % 1005,8 hPa 0,0 l/m 0 min 2 min 0 W/m 12,9 km/h (3 Bft) 100,00 %
05.03.2020 02:20 5,1 C 3,3 C 2,8 C 91 % 1005,8 hPa 0,0 l/m 0 min 2 min 0 W/m 19,3 km/h (3 Bft) 100,00 %
05.03.2020 02:22 5,1 C 3,3 C 2,8 C 92 % 1005,8 hPa 0,0 l/m 0 min 2 min 0 W/m 19,3 km/h (3 Bft) 100,00 %
05.03.2020 02:24 5,0 C 3,3 C 2,8 C 92 % 1005,7 hPa 0,0 l/m 0 min 0 min 0 W/m 16,1 km/h (3 Bft) 97,87 %
05.03.2020 02:26 5,0 C 3,3 C 3,3 C 92 % 1005,6 hPa 0,0 l/m 0 min 0 min 0 W/m 3,2 km/h (1 Bft) 95,74 %
05.03.2020 02:28 5,0 C 3,3 C 3,3 C 92 % 1005,6 hPa 0,0 l/m 0 min 2 min 0 W/m 12,9 km/h (3 Bft) 93,62 %
05.03.2020 02:30 5,0 C 3,3 C 2,8 C 92 % 1005,4 hPa 0,0 l/m 0 min 2 min 0 W/m 16,1 km/h (3 Bft) 97,87 %
05.03.2020 02:32 5,0 C 3,3 C 2,8 C 92 % 1005,4 hPa 0,0 l/m 0 min 2 min 0 W/m 3,2 km/h (1 Bft) 95,74 %
05.03.2020 02:34 5,0 C 3,3 C 3,3 C 92 % 1005,4 hPa 0,0 l/m 0 min 2 min 0 W/m 6,4 km/h (2 Bft) 97,83 %
05.03.2020 02:36 4,9 C 3,3 C 3,3 C 92 % 1005,4 hPa 0,0 l/m 0 min 2 min 0 W/m 6,4 km/h (2 Bft) 95,74 %
05.03.2020 02:38 4,9 C 3,3 C 3,3 C 92 % 1005,3 hPa 0,0 l/m 0 min 2 min 0 W/m 6,4 km/h (2 Bft) 97,87 %
05.03.2020 02:40 4,9 C 3,3 C 3,3 C 92 % 1005,2 hPa 0,0 l/m 0 min 2 min 0 W/m 0,0 km/h (0 Bft) 97,87 %
05.03.2020 02:42 4,9 C 3,3 C 3,3 C 92 % 1005,2 hPa 0,0 l/m 0 min 2 min 0 W/m 16,1 km/h (3 Bft) 95,74 %
05.03.2020 02:44 4,9 C 3,3 C 3,3 C 93 % 1005,2 hPa 0,0 l/m 0 min 2 min 0 W/m 3,2 km/h (1 Bft) 91,49 %
05.03.2020 02:46 4,9 C 3,3 C 3,3 C 93 % 1005,2 hPa 0,2 l/m 0 min 2 min 0 W/m 0,0 km/h (0 Bft) 95,65 %
05.03.2020 02:48 4,9 C 3,3 C 3,3 C 93 % 1005,1 hPa 0,0 l/m 0 min 0 min 0 W/m 0,0 km/h (0 Bft) 97,87 %
05.03.2020 02:50 4,9 C 3,3 C 3,3 C 93 % 1005,1 hPa 0,0 l/m 0 min 0 min 0 W/m 0,0 km/h (0 Bft) 95,74 %
05.03.2020 02:52 4,9 C 3,3 C 3,3 C 93 % 1005,1 hPa 0,0 l/m 0 min 2 min 0 W/m 0,0 km/h (0 Bft) 95,74 %
05.03.2020 02:54 4,9 C 3,3 C 3,3 C 93 % 1005,0 hPa 0,0 l/m 0 min 2 min 0 W/m 6,4 km/h (2 Bft) 95,74 %
05.03.2020 02:56 4,9 C 3,3 C 3,3 C 93 % 1004,9 hPa 0,0 l/m 0 min 0 min 0 W/m 6,4 km/h (2 Bft) 95,65 %
05.03.2020 02:58 4,9 C 3,3 C 3,3 C 93 % 1005,0 hPa 0,0 l/m 0 min 0 min 0 W/m 6,4 km/h (2 Bft) 95,74 %
05.03.2020 03:00 4,9 C 3,3 C 3,3 C 93 % 1004,9 hPa 0,0 l/m 0 min 0 min 0 W/m 12,9 km/h (3 Bft) 93,62 %
05.03.2020 03:02 4,9 C 3,3 C 3,3 C 93 % 1004,8 hPa 0,0 l/m 0 min 0 min 0 W/m 6,4 km/h (2 Bft) 97,87 %
05.03.2020 03:04 4,8 C 3,3 C 3,3 C 93 % 1004,7 hPa 0,0 l/m 0 min 0 min 0 W/m 16,1 km/h (3 Bft) 95,74 %
05.03.2020 03:06 4,8 C 3,3 C 3,3 C 93 % 1004,7 hPa 0,0 l/m 0 min 0 min 0 W/m 16,1 km/h (3 Bft) 95,74 %
05.03.2020 03:08 4,8 C 3,3 C 3,3 C 93 % 1004,7 hPa 0,0 l/m 0 min 0 min 0 W/m 6,4 km/h (2 Bft) 97,83 %
05.03.2020 03:10 4,8 C 3,3 C 3,3 C 94 % 1004,6 hPa 0,0 l/m 0 min 0 min 0 W/m 6,4 km/h (2 Bft) 97,87 %
05.03.2020 03:12 4,8 C 3,3 C 3,3 C 94 % 1004,6 hPa 0,0 l/m 0 min 0 min 0 W/m 6,4 km/h (2 Bft) 97,87 %
05.03.2020 03:14 4,8 C 3,3 C 3,3 C 94 % 1004,5 hPa 0,0 l/m 0 min 0 min 0 W/m 16,1 km/h (3 Bft) 97,87 %
05.03.2020 03:16 4,8 C 3,3 C 3,3 C 94 % 1004,4 hPa 0,0 l/m 0 min 0 min 0 W/m 16,1 km/h (3 Bft) 97,87 %
05.03.2020 03:18 4,8 C 3,3 C 3,3 C 94 % 1004,3 hPa 0,0 l/m 0 min 0 min 0 W/m 12,9 km/h (3 Bft) 97,87 %
05.03.2020 03:20 4,8 C 3,3 C 3,3 C 94 % 1004,3 hPa 0,0 l/m 0 min 0 min 0 W/m 16,1 km/h (3 Bft) 95,65 %
05.03.2020 03:22 4,8 C 3,3 C 3,3 C 94 % 1004,2 hPa 0,0 l/m 0 min 0 min 0 W/m 16,1 km/h (3 Bft) 95,74 %
05.03.2020 03:24 4,8 C 3,3 C 3,3 C 94 % 1004,2 hPa 0,0 l/m 0 min 0 min 0 W/m 19,3 km/h (3 Bft) 97,87 %
05.03.2020 03:26 4,8 C 3,3 C 3,3 C 94 % 1004,2 hPa 0,0 l/m 0 min 0 min 0 W/m 16,1 km/h (3 Bft) 97,87 %
05.03.2020 03:28 4,7 C 3,3 C 3,3 C 94 % 1004,2 hPa 0,0 l/m 0 min 0 min 0 W/m 12,9 km/h (3 Bft) 97,87 %
05.03.2020 03:30 4,8 C 3,3 C 3,3 C 94 % 1004,1 hPa 0,0 l/m 0 min 0 min 0 W/m 22,5 km/h (4 Bft) 97,87 %
05.03.2020 03:32 4,7 C 3,3 C 3,3 C 94 % 1004,1 hPa 0,0 l/m 0 min 0 min 0 W/m 16,1 km/h (3 Bft) 97,83 %
05.03.2020 03:34 4,8 C 3,3 C 3,3 C 94 % 1004,1 hPa 0,0 l/m 0 min 0 min 0 W/m 12,9 km/h (3 Bft) 95,74 %
05.03.2020 03:36 4,7 C 3,3 C 3,3 C 94 % 1004,1 hPa 0,0 l/m 0 min 2 min 0 W/m 12,9 km/h (3 Bft) 97,87 %
05.03.2020 03:38 4,7 C 3,3 C 3,3 C 94 % 1004,1 hPa 0,0 l/m 0 min 2 min 0 W/m 12,9 km/h (3 Bft) 97,87 %
05.03.2020 03:40 4,8 C 3,3 C 3,3 C 94 % 1004,0 hPa 0,0 l/m 0 min 0 min 0 W/m 12,9 km/h (3 Bft) 97,87 %
05.03.2020 03:42 4,7 C 3,3 C 3,3 C 94 % 1003,9 hPa 0,0 l/m 0 min 0 min 0 W/m 6,4 km/h (2 Bft) 95,74 %
05.03.2020 03:44 4,7 C 3,3 C 3,3 C 94 % 1004,0 hPa 0,0 l/m 0 min 0 min 0 W/m 12,9 km/h (3 Bft) 97,83 %
05.03.2020 03:46 4,7 C 3,3 C 3,3 C 94 % 1003,9 hPa 0,0 l/m 0 min 2 min 0 W/m 16,1 km/h (3 Bft) 95,74 %
05.03.2020 03:48 4,7 C 3,3 C 3,3 C 94 % 1003,8 hPa 0,0 l/m 0 min 2 min 0 W/m 19,3 km/h (3 Bft) 95,74 %
05.03.2020 03:50 4,7 C 3,3 C 3,3 C 94 % 1003,7 hPa 0,0 l/m 0 min 2 min 0 W/m 25,7 km/h (4 Bft) 93,62 %
05.03.2020 03:52 4,8 C 3,3 C 3,3 C 94 % 1003,7 hPa 0,0 l/m 0 min 2 min 0 W/m 25,7 km/h (4 Bft) 97,87 %
05.03.2020 03:54 4,7 C 3,3 C 3,3 C 94 % 1003,7 hPa 0,0 l/m 0 min 2 min 0 W/m 16,1 km/h (3 Bft) 95,65 %
05.03.2020 03:56 4,7 C 3,3 C 3,3 C 94 % 1003,6 hPa 0,0 l/m 0 min 2 min 0 W/m 6,4 km/h (2 Bft) 95,74 %
05.03.2020 03:58 4,7 C 3,3 C 3,3 C 94 % 1003,6 hPa 0,0 l/m 0 min 2 min 0 W/m 16,1 km/h (3 Bft) 97,87 %
05.03.2020 04:00 4,7 C 3,3 C 3,3 C 94 % 1003,6 hPa 0,0 l/m 0 min 2 min 0 W/m 22,5 km/h (4 Bft) 95,74 %
05.03.2020 04:02 4,7 C 3,3 C 3,3 C 94 % 1003,6 hPa 0,0 l/m 0 min 2 min 0 W/m 22,5 km/h (4 Bft) 91,67 %
05.03.2020 04:04 4,7 C 3,3 C 3,3 C 94 % 1003,6 hPa 0,0 l/m 0 min 2 min 0 W/m 19,3 km/h (3 Bft) 93,62 %
05.03.2020 04:06 4,7 C 3,3 C 3,3 C 94 % 1003,6 hPa 0,0 l/m 0 min 0 min 0 W/m 12,9 km/h (3 Bft) 95,65 %
05.03.2020 04:08 4,7 C 3,3 C 3,3 C 94 % 1003,6 hPa 0,0 l/m 0 min 0 min 0 W/m 16,1 km/h (3 Bft) 97,87 %
05.03.2020 04:10 4,7 C 3,3 C 3,3 C 94 % 1003,5 hPa 0,0 l/m 0 min 0 min 0 W/m 16,1 km/h (3 Bft) 95,74 %
05.03.2020 04:12 4,7 C 3,3 C 3,3 C 94 % 1003,5 hPa 0,0 l/m 0 min 0 min 0 W/m 12,9 km/h (3 Bft) 97,87 %
05.03.2020 04:14 4,7 C 3,3 C 3,3 C 94 % 1003,5 hPa 0,0 l/m 0 min 0 min 0 W/m 19,3 km/h (3 Bft) 97,87 %
05.03.2020 04:16 4,7 C 3,3 C 3,3 C 94 % 1003,4 hPa 0,0 l/m 0 min 0 min 0 W/m 16,1 km/h (3 Bft) 97,87 %
05.03.2020 04:18 4,7 C 3,3 C 3,3 C 94 % 1003,4 hPa 0,0 l/m 0 min 0 min 0 W/m 12,9 km/h (3 Bft) 97,83 %
05.03.2020 04:20 4,7 C 3,3 C 3,3 C 94 % 1003,4 hPa 0,0 l/m 0 min 0 min 0 W/m 16,1 km/h (3 Bft) 97,87 %
05.03.2020 04:22 4,7 C 3,3 C 3,3 C 94 % 1003,4 hPa 0,0 l/m 0 min 0 min 0 W/m 16,1 km/h (3 Bft) 95,74 %
05.03.2020 04:24 4,7 C 3,3 C 3,3 C 94 % 1003,4 hPa 0,0 l/m 0 min 0 min 0 W/m 12,9 km/h (3 Bft) 95,74 %
05.03.2020 04:26 4,7 C 3,3 C 3,3 C 95 % 1003,3 hPa 0,0 l/m 0 min 0 min 0 W/m 29,0 km/h (5 Bft) 95,74 %
05.03.2020 04:28 4,7 C 3,3 C 3,3 C 95 % 1003,3 hPa 0,0 l/m 0 min 0 min 0 W/m 12,9 km/h (3 Bft) 97,87 %
05.03.2020 04:30 4,7 C 3,3 C 3,3 C 95 % 1003,3 hPa 0,0 l/m 0 min 0 min 0 W/m 16,1 km/h (3 Bft) 97,83 %
05.03.2020 04:32 4,7 C 3,3 C 3,3 C 95 % 1003,2 hPa 0,0 l/m 0 min 0 min 0 W/m 16,1 km/h (3 Bft) 95,74 %
05.03.2020 04:34 4,7 C 3,3 C 3,3 C 95 % 1003,1 hPa 0,0 l/m 0 min 2 min 0 W/m 25,7 km/h (4 Bft) 97,87 %
05.03.2020 04:36 4,7 C 3,3 C 3,3 C 95 % 1003,1 hPa 0,0 l/m 0 min 2 min 0 W/m 16,1 km/h (3 Bft) 97,87 %
05.03.2020 04:38 4,7 C 3,3 C 3,3 C 95 % 1003,0 hPa 0,0 l/m 0 min 2 min 0 W/m 22,5 km/h (4 Bft) 97,87 %
05.03.2020 04:40 4,7 C 3,3 C 3,3 C 95 % 1003,0 hPa 0,2 l/m 0 min 2 min 0 W/m 25,7 km/h (4 Bft) 97,83 %
05.03.2020 04:42 4,7 C 3,3 C 2,8 C 95 % 1003,0 hPa 0,0 l/m 0 min 2 min 0 W/m 16,1 km/h (3 Bft) 97,87 %
05.03.2020 04:44 4,7 C 3,3 C 3,3 C 95 % 1003,0 hPa 0,0 l/m 0 min 2 min 0 W/m 22,5 km/h (4 Bft) 93,62 %
05.03.2020 04:46 4,7 C 3,3 C 2,8 C 95 % 1003,0 hPa 0,0 l/m 0 min 2 min 0 W/m 22,5 km/h (4 Bft) 97,87 %
05.03.2020 04:48 4,7 C 3,3 C 3,3 C 95 % 1003,0 hPa 0,2 l/m 0 min 2 min 0 W/m 16,1 km/h (3 Bft) 93,62 %
05.03.2020 04:50 4,7 C 3,3 C 2,8 C 95 % 1002,9 hPa 0,0 l/m 0 min 2 min 0 W/m 19,3 km/h (3 Bft) 95,74 %
05.03.2020 04:52 4,7 C 3,3 C 2,8 C 95 % 1002,9 hPa 0,0 l/m 0 min 2 min 0 W/m 22,5 km/h (4 Bft) 97,87 %
05.03.2020 04:54 4,7 C 3,3 C 2,8 C 95 % 1002,9 hPa 0,0 l/m 0 min 2 min 0 W/m 19,3 km/h (3 Bft) 97,83 %
05.03.2020 04:56 4,7 C 3,3 C 3,3 C 95 % 1002,9 hPa 0,0 l/m 0 min 2 min 0 W/m 16,1 km/h (3 Bft) 97,87 %
05.03.2020 04:58 4,7 C 3,3 C 3,3 C 95 % 1002,8 hPa 0,0 l/m 0 min 2 min 0 W/m 16,1 km/h (3 Bft) 97,87 %
05.03.2020 05:00 4,7 C 3,3 C 2,8 C 95 % 1002,8 hPa 0,0 l/m 0 min 2 min 0 W/m 12,9 km/h (3 Bft) 97,87 %
05.03.2020 05:02 4,7 C 3,3 C 2,8 C 95 % 1002,8 hPa 0,0 l/m 0 min 2 min 0 W/m 22,5 km/h (4 Bft) 97,87 %
05.03.2020 05:04 4,7 C 3,3 C 2,8 C 95 % 1002,8 hPa 0,0 l/m 0 min 2 min 0 W/m 16,1 km/h (3 Bft) 95,65 %
05.03.2020 05:06 4,7 C 3,3 C 2,8 C 95 % 1002,7 hPa 0,0 l/m 0 min 2 min 0 W/m 16,1 km/h (3 Bft) 97,87 %
05.03.2020 05:08 4,7 C 3,3 C 3,3 C 95 % 1002,7 hPa 0,0 l/m 0 min 2 min 0 W/m 12,9 km/h (3 Bft) 97,87 %
05.03.2020 05:10 4,7 C 3,3 C 3,3 C 95 % 1002,6 hPa 0,0 l/m 0 min 0 min 0 W/m 19,3 km/h (3 Bft) 97,87 %
05.03.2020 05:12 4,7 C 3,3 C 2,8 C 95 % 1002,6 hPa 0,0 l/m 0 min 0 min 0 W/m 22,5 km/h (4 Bft) 97,87 %
05.03.2020 05:14 4,7 C 3,3 C 3,3 C 95 % 1002,5 hPa 0,0 l/m 0 min 0 min 0 W/m 19,3 km/h (3 Bft) 95,74 %
05.03.2020 05:16 4,7 C 3,3 C 3,3 C 95 % 1002,5 hPa 0,0 l/m 0 min 0 min 0 W/m 6,4 km/h (2 Bft) 100,00 %
05.03.2020 05:18 4,7 C 3,3 C 3,3 C 95 % 1002,5 hPa 0,0 l/m 0 min 0 min 0 W/m 22,5 km/h (4 Bft) 100,00 %
05.03.2020 05:20 4,7 C 3,3 C 3,3 C 95 % 1002,4 hPa 0,0 l/m 0 min 0 min 0 W/m 16,1 km/h (3 Bft) 97,87 %
05.03.2020 05:22 4,7 C 3,3 C 3,3 C 95 % 1002,4 hPa 0,0 l/m 0 min 0 min 0 W/m 22,5 km/h (4 Bft) 100,00 %
05.03.2020 05:24 4,7 C 3,3 C 3,3 C 95 % 1002,3 hPa 0,0 l/m 0 min 0 min 0 W/m 22,5 km/h (4 Bft) 100,00 %
05.03.2020 05:26 4,7 C 3,3 C 3,3 C 95 % 1002,2 hPa 0,0 l/m 0 min 0 min 0 W/m 19,3 km/h (3 Bft) 100,00 %
05.03.2020 05:28 4,7 C 3,9 C 3,3 C 95 % 1002,3 hPa 0,0 l/m 0 min 0 min 0 W/m 3,2 km/h (1 Bft) 100,00 %
05.03.2020 05:30 4,7 C 3,9 C 3,3 C 95 % 1002,3 hPa 0,0 l/m 0 min 0 min 0 W/m 25,7 km/h (4 Bft) 100,00 %
05.03.2020 05:32 4,7 C 3,9 C 3,3 C 95 % 1002,3 hPa 0,0 l/m 0 min 0 min 0 W/m 19,3 km/h (3 Bft) 100,00 %
05.03.2020 05:34 4,7 C 3,9 C 3,3 C 95 % 1002,2 hPa 0,0 l/m 0 min 0 min 0 W/m 19,3 km/h (3 Bft) 100,00 %
05.03.2020 05:36 4,7 C 3,9 C 3,3 C 95 % 1002,2 hPa 0,0 l/m 0 min 0 min 0 W/m 22,5 km/h (4 Bft) 100,00 %
05.03.2020 05:38 4,7 C 3,9 C 3,3 C 95 % 1002,1 hPa 0,0 l/m 0 min 0 min 0 W/m 19,3 km/h (3 Bft) 100,00 %
05.03.2020 05:40 4,7 C 3,9 C 3,3 C 95 % 1002,1 hPa 0,0 l/m 0 min 0 min 0 W/m 16,1 km/h (3 Bft) 100,00 %
05.03.2020 05:42 4,7 C 3,9 C 3,3 C 95 % 1002,2 hPa 0,0 l/m 0 min 0 min 0 W/m 16,1 km/h (3 Bft) 100,00 %
05.03.2020 05:44 4,7 C 3,9 C 3,3 C 95 % 1002,0 hPa 0,0 l/m 0 min 0 min 0 W/m 19,3 km/h (3 Bft) 100,00 %
05.03.2020 05:46 4,7 C 3,9 C 3,3 C 95 % 1002,1 hPa 0,0 l/m 0 min 2 min 0 W/m 16,1 km/h (3 Bft) 100,00 %
05.03.2020 05:48 4,7 C 3,9 C 3,3 C 95 % 1002,1 hPa 0,0 l/m 0 min 2 min 0 W/m 25,7 km/h (4 Bft) 97,87 %
05.03.2020 05:50 4,7 C 3,9 C 3,3 C 95 % 1002,0 hPa 0,0 l/m 0 min 0 min 0 W/m 16,1 km/h (3 Bft) 100,00 %
05.03.2020 05:52 4,7 C 3,9 C 3,3 C 96 % 1002,0 hPa 0,0 l/m 0 min 0 min 0 W/m 16,1 km/h (3 Bft) 100,00 %
05.03.2020 05:54 4,7 C 3,9 C 3,3 C 96 % 1001,9 hPa 0,0 l/m 0 min 2 min 0 W/m 22,5 km/h (4 Bft) 100,00 %
05.03.2020 05:56 4,7 C 3,9 C 3,3 C 96 % 1001,9 hPa 0,0 l/m 0 min 0 min 0 W/m 22,5 km/h (4 Bft) 97,56 %
05.03.2020 05:58 4,7 C 3,9 C 3,3 C 96 % 1001,8 hPa 0,0 l/m 0 min 0 min 0 W/m 22,5 km/h (4 Bft) 100,00 %
05.03.2020 06:00 4,7 C 3,9 C 3,3 C 95 % 1001,8 hPa 0,0 l/m 0 min 0 min 0 W/m 16,1 km/h (3 Bft) 100,00 %
05.03.2020 06:02 4,7 C 3,9 C 3,3 C 95 % 1001,8 hPa 0,0 l/m 0 min 0 min 0 W/m 22,5 km/h (4 Bft) 100,00 %
05.03.2020 06:04 4,7 C 3,9 C 3,3 C 95 % 1001,7 hPa 0,0 l/m 0 min 0 min 0 W/m 12,9 km/h (3 Bft) 100,00 %
05.03.2020 06:08 4,8 C 3,9 C 3,3 C 95 % 1001,6 hPa 0,0 l/m 0 min 4 min 0 W/m 22,5 km/h (4 Bft) 100,00 %
05.03.2020 06:10 4,8 C 3,9 C 3,3 C 95 % 1001,5 hPa 0,0 l/m 0 min 0 min 0 W/m 19,3 km/h (3 Bft) 100,00 %
05.03.2020 06:12 4,8 C 3,9 C 3,3 C 95 % 1001,4 hPa 0,0 l/m 0 min 2 min 0 W/m 35,4 km/h (5 Bft) 100,00 %
05.03.2020 06:14 4,8 C 3,9 C 3,3 C 95 % 1001,3 hPa 0,0 l/m 0 min 2 min 0 W/m 25,7 km/h (4 Bft) 97,22 %
05.03.2020 06:16 4,8 C 3,9 C 3,3 C 95 % 1001,4 hPa 0,0 l/m 0 min 0 min 0 W/m 29,0 km/h (5 Bft) 100,00 %
05.03.2020 06:18 4,8 C 3,9 C 3,3 C 95 % 1001,4 hPa 0,0 l/m 0 min 2 min 0 W/m 22,5 km/h (4 Bft) 97,87 %
05.03.2020 06:20 4,8 C 3,9 C 3,3 C 95 % 1001,5 hPa 0,0 l/m 0 min 2 min 0 W/m 29,0 km/h (5 Bft) 100,00 %
05.03.2020 06:22 4,8 C 3,9 C 3,3 C 95 % 1001,4 hPa 0,0 l/m 0 min 2 min 0 W/m 22,5 km/h (4 Bft) 100,00 %
05.03.2020 06:24 4,8 C 3,9 C 3,3 C 95 % 1001,4 hPa 0,0 l/m 0 min 0 min 0 W/m 25,7 km/h (4 Bft) 100,00 %
05.03.2020 06:26 4,8 C 3,9 C 3,3 C 95 % 1001,4 hPa 0,0 l/m 0 min 0 min 0 W/m 19,3 km/h (3 Bft) 97,83 %
05.03.2020 06:28 4,8 C 3,9 C 3,3 C 95 % 1001,4 hPa 0,0 l/m 0 min 0 min 0 W/m 29,0 km/h (5 Bft) 100,00 %
05.03.2020 06:30 4,8 C 3,9 C 3,3 C 95 % 1001,4 hPa 0,0 l/m 0 min 0 min 0 W/m 19,3 km/h (3 Bft) 100,00 %
05.03.2020 06:32 4,8 C 3,9 C 3,3 C 95 % 1001,4 hPa 0,0 l/m 0 min 0 min 0 W/m 19,3 km/h (3 Bft) 100,00 %
05.03.2020 06:34 4,8 C 3,9 C 3,3 C 95 % 1001,4 hPa 0,0 l/m 0 min 0 min 0 W/m 12,9 km/h (3 Bft) 100,00 %
05.03.2020 06:36 4,8 C 3,9 C 3,3 C 95 % 1001,3 hPa 0,0 l/m 0 min 0 min 0 W/m 16,1 km/h (3 Bft) 100,00 %
05.03.2020 06:38 4,8 C 3,9 C 3,3 C 95 % 1001,4 hPa 0,0 l/m 0 min 0 min 0 W/m 16,1 km/h (3 Bft) 100,00 %
05.03.2020 06:40 4,8 C 3,9 C 3,3 C 95 % 1001,2 hPa 0,0 l/m 0 min 2 min 0 W/m 16,1 km/h (3 Bft) 97,96 %
05.03.2020 06:42 4,9 C 3,9 C 3,3 C 95 % 1001,3 hPa 0,0 l/m 0 min 0 min 0 W/m 16,1 km/h (3 Bft) 91,89 %
05.03.2020 06:44 4,8 C 3,9 C 3,3 C 95 % 1001,2 hPa 0,0 l/m 0 min 0 min 0 W/m 29,0 km/h (5 Bft) 95,74 %
05.03.2020 06:46 4,8 C 3,9 C 3,3 C 95 % 1001,2 hPa 0,0 l/m 0 min 0 min 0 W/m 19,3 km/h (3 Bft) 95,74 %
05.03.2020 06:48 4,9 C 3,9 C 3,3 C 95 % 1001,1 hPa 0,0 l/m 0 min 2 min 0 W/m 19,3 km/h (3 Bft) 94,44 %
05.03.2020 06:50 4,9 C 3,9 C 3,3 C 95 % 1001,1 hPa 0,0 l/m 0 min 0 min 0 W/m 19,3 km/h (3 Bft) 96,00 %
05.03.2020 06:52 4,9 C 3,9 C 3,3 C 95 % 1000,9 hPa 0,0 l/m 0 min 0 min 0 W/m 19,3 km/h (3 Bft) 91,67 %
05.03.2020 06:54 4,9 C 3,9 C 3,3 C 95 % 1001,0 hPa 0,0 l/m 0 min 0 min 0 W/m 22,5 km/h (4 Bft) 95,74 %
05.03.2020 06:56 4,9 C 3,9 C 3,3 C 95 % 1001,1 hPa 0,0 l/m 0 min 0 min 0 W/m 19,3 km/h (3 Bft) 96,30 %
05.03.2020 06:58 4,9 C 3,9 C 3,3 C 95 % 1001,0 hPa 0,0 l/m 0 min 0 min 0 W/m 19,3 km/h (3 Bft) 92,00 %
05.03.2020 07:00 4,9 C 3,9 C 3,3 C 95 % 1000,8 hPa 0,0 l/m 0 min 0 min 0 W/m 25,7 km/h (4 Bft) 94,59 %
05.03.2020 07:02 4,9 C 3,9 C 3,3 C 95 % 1000,8 hPa 0,2 l/m 0 min 0 min 0 W/m 35,4 km/h (5 Bft) 93,48 %
05.03.2020 07:04 4,9 C 3,9 C 3,3 C 95 % 1000,8 hPa 0,0 l/m 0 min 0 min 0 W/m 19,3 km/h (3 Bft) 92,73 %
05.03.2020 07:06 4,9 C 3,9 C 3,3 C 94 % 1000,8 hPa 0,0 l/m 0 min 0 min 0 W/m 22,5 km/h (4 Bft) 93,88 %
05.03.2020 07:08 4,9 C 3,9 C 3,3 C 94 % 1000,7 hPa 0,0 l/m 0 min 0 min 0 W/m 19,3 km/h (3 Bft) 93,62 %
05.03.2020 07:10 4,9 C 3,9 C 3,3 C 94 % 1000,6 hPa 0,0 l/m 0 min 0 min 0 W/m 16,1 km/h (3 Bft) 93,62 %
05.03.2020 07:12 4,9 C 3,9 C 3,3 C 94 % 1000,5 hPa 0,0 l/m 0 min 0 min 0 W/m 22,5 km/h (4 Bft) 93,62 %
05.03.2020 07:14 4,9 C 3,9 C 3,3 C 94 % 1000,6 hPa 0,0 l/m 0 min 0 min 0 W/m 29,0 km/h (5 Bft) 88,89 %
05.03.2020 07:16 4,9 C 3,9 C 3,3 C 94 % 1000,7 hPa 0,0 l/m 0 min 0 min 1 W/m 22,5 km/h (4 Bft) 93,62 %
05.03.2020 07:18 4,9 C 3,9 C 3,3 C 94 % 1000,7 hPa 0,0 l/m 0 min 0 min 5 W/m 19,3 km/h (3 Bft) 93,62 %
05.03.2020 07:20 4,9 C 3,9 C 3,3 C 94 % 1000,6 hPa 0,0 l/m 0 min 0 min 5 W/m 19,3 km/h (3 Bft) 90,74 %
05.03.2020 07:22 4,9 C 3,9 C 3,3 C 94 % 1000,6 hPa 0,0 l/m 0 min 0 min 5 W/m 19,3 km/h (3 Bft) 92,00 %
05.03.2020 07:24 4,9 C 3,9 C 3,3 C 94 % 1000,4 hPa 0,0 l/m 0 min 0 min 5 W/m 19,3 km/h (3 Bft) 89,19 %
05.03.2020 07:26 4,9 C 3,9 C 3,3 C 94 % 1000,4 hPa 0,0 l/m 0 min 0 min 7 W/m 22,5 km/h (4 Bft) 93,48 %
05.03.2020 07:28 4,9 C 3,9 C 3,3 C 94 % 1000,5 hPa 0,0 l/m 0 min 0 min 7 W/m 22,5 km/h (4 Bft) 92,59 %
05.03.2020 07:30 4,9 C 3,9 C 3,3 C 94 % 1000,4 hPa 0,0 l/m 0 min 0 min 8 W/m 22,5 km/h (4 Bft) 96,00 %
05.03.2020 07:32 4,9 C 3,9 C 3,3 C 94 % 1000,4 hPa 0,0 l/m 0 min 0 min 10 W/m 22,5 km/h (4 Bft) 94,59 %
05.03.2020 07:34 4,9 C 3,9 C 3,3 C 94 % 1000,3 hPa 0,0 l/m 0 min 0 min 11 W/m 25,7 km/h (4 Bft) 95,74 %
05.03.2020 07:36 4,9 C 3,9 C 3,3 C 94 % 1000,3 hPa 0,0 l/m 0 min 0 min 11 W/m 19,3 km/h (3 Bft) 94,44 %
05.03.2020 07:38 5,0 C 3,9 C 3,3 C 94 % 1000,3 hPa 0,0 l/m 0 min 0 min 12 W/m 16,1 km/h (3 Bft) 97,96 %
05.03.2020 07:40 5,0 C 3,9 C 3,3 C 94 % 1000,2 hPa 0,0 l/m 0 min 0 min 15 W/m 19,3 km/h (3 Bft) 97,87 %
05.03.2020 07:42 5,0 C 3,9 C 3,3 C 94 % 1000,2 hPa 0,0 l/m 0 min 0 min 21 W/m 22,5 km/h (4 Bft) 97,30 %
05.03.2020 07:44 5,0 C 3,9 C 3,3 C 94 % 1000,1 hPa 0,0 l/m 0 min 0 min 28 W/m 25,7 km/h (4 Bft) 97,87 %
05.03.2020 07:46 5,0 C 3,9 C 3,3 C 94 % 1000,1 hPa 0,0 l/m 0 min 0 min 32 W/m 22,5 km/h (4 Bft) 98,15 %
05.03.2020 07:48 5,0 C 3,9 C 3,3 C 94 % 1000,0 hPa 0,0 l/m 0 min 0 min 32 W/m 22,5 km/h (4 Bft) 98,00 %
05.03.2020 07:50 5,0 C 3,9 C 3,3 C 94 % 1000,1 hPa 0,0 l/m 0 min 0 min 31 W/m 22,5 km/h (4 Bft) 100,00 %
05.03.2020 07:52 5,0 C 3,9 C 3,3 C 94 % 1000,1 hPa 0,0 l/m 0 min 0 min 30 W/m 29,0 km/h (5 Bft) 100,00 %
05.03.2020 07:54 5,1 C 3,9 C 3,3 C 94 % 1000,1 hPa 0,0 l/m 0 min 0 min 34 W/m 22,5 km/h (4 Bft) 100,00 %
05.03.2020 07:56 5,1 C 3,9 C 3,9 C 94 % 1000,0 hPa 0,0 l/m 0 min 0 min 34 W/m 19,3 km/h (3 Bft) 100,00 %
05.03.2020 07:58 5,1 C 3,9 C 3,9 C 94 % 999,9 hPa 0,0 l/m 0 min 0 min 31 W/m 19,3 km/h (3 Bft) 100,00 %
05.03.2020 08:00 5,1 C 3,9 C 3,9 C 94 % 999,9 hPa 0,0 l/m 0 min 0 min 29 W/m 19,3 km/h (3 Bft) 100,00 %
05.03.2020 08:02 5,1 C 4,4 C 3,9 C 94 % 999,8 hPa 0,0 l/m 0 min 0 min 35 W/m 29,0 km/h (5 Bft) 100,00 %
05.03.2020 08:04 5,1 C 4,4 C 3,9 C 94 % 999,8 hPa 0,0 l/m 0 min 0 min 39 W/m 22,5 km/h (4 Bft) 97,87 %
05.03.2020 08:06 5,1 C 4,4 C 3,9 C 94 % 999,8 hPa 0,0 l/m 0 min 0 min 39 W/m 25,7 km/h (4 Bft) 97,87 %
05.03.2020 08:08 5,1 C 4,4 C 3,9 C 94 % 999,9 hPa 0,0 l/m 0 min 0 min 43 W/m 25,7 km/h (4 Bft) 100,00 %
05.03.2020 08:10 5,1 C 4,4 C 3,9 C 94 % 999,7 hPa 0,0 l/m 0 min 0 min 52 W/m 22,5 km/h (4 Bft) 100,00 %
05.03.2020 08:12 5,1 C 4,4 C 3,9 C 94 % 999,7 hPa 0,0 l/m 0 min 0 min 59 W/m 29,0 km/h (5 Bft) 100,00 %
05.03.2020 08:14 5,1 C 4,4 C 3,9 C 94 % 999,7 hPa 0,0 l/m 0 min 0 min 59 W/m 22,5 km/h (4 Bft) 100,00 %
05.03.2020 08:16 5,1 C 4,4 C 3,9 C 94 % 999,7 hPa 0,0 l/m 0 min 0 min 52 W/m 25,7 km/h (4 Bft) 100,00 %
05.03.2020 08:18 5,1 C 4,4 C 3,9 C 94 % 999,7 hPa 0,0 l/m 0 min 0 min 51 W/m 29,0 km/h (5 Bft) 100,00 %
05.03.2020 08:20 5,2 C 4,4 C 3,9 C 94 % 999,7 hPa 0,0 l/m 0 min 0 min 57 W/m 19,3 km/h (3 Bft) 100,00 %
05.03.2020 08:22 5,2 C 4,4 C 4,4 C 94 % 999,7 hPa 0,0 l/m 0 min 0 min 57 W/m 25,7 km/h (4 Bft) 100,00 %
05.03.2020 08:24 5,2 C 4,4 C 4,4 C 94 % 999,6 hPa 0,0 l/m 0 min 0 min 60 W/m 25,7 km/h (4 Bft) 100,00 %
05.03.2020 08:26 5,2 C 4,4 C 4,4 C 94 % 999,6 hPa 0,0 l/m 0 min 0 min 59 W/m 29,0 km/h (5 Bft) 100,00 %
05.03.2020 08:28 5,2 C 4,4 C 4,4 C 94 % 999,6 hPa 0,0 l/m 0 min 0 min 54 W/m 25,7 km/h (4 Bft) 98,15 %
05.03.2020 08:30 5,2 C 4,4 C 4,4 C 94 % 999,6 hPa 0,0 l/m 0 min 0 min 51 W/m 25,7 km/h (4 Bft) 100,00 %
05.03.2020 08:32 5,2 C 4,4 C 4,4 C 94 % 999,6 hPa 0,0 l/m 0 min 0 min 48 W/m 25,7 km/h (4 Bft) 100,00 %
05.03.2020 08:34 5,2 C 4,4 C 4,4 C 94 % 999,6 hPa 0,0 l/m 0 min 0 min 46 W/m 25,7 km/h (4 Bft) 97,87 %
05.03.2020 08:36 5,2 C 4,4 C 4,4 C 94 % 999,6 hPa 0,0 l/m 0 min 0 min 41 W/m 25,7 km/h (4 Bft) 100,00 %
05.03.2020 08:38 5,2 C 4,4 C 4,4 C 94 % 999,6 hPa 0,0 l/m 0 min 0 min 39 W/m 29,0 km/h (5 Bft) 97,87 %
05.03.2020 08:40 5,2 C 4,4 C 4,4 C 94 % 999,6 hPa 0,0 l/m 0 min 0 min 37 W/m 25,7 km/h (4 Bft) 100,00 %
05.03.2020 08:42 5,2 C 4,4 C 4,4 C 94 % 999,6 hPa 0,0 l/m 0 min 0 min 39 W/m 16,1 km/h (3 Bft) 100,00 %
05.03.2020 08:44 5,3 C 4,4 C 4,4 C 94 % 999,6 hPa 0,0 l/m 0 min 0 min 43 W/m 25,7 km/h (4 Bft) 100,00 %
05.03.2020 08:46 5,3 C 4,4 C 4,4 C 94 % 999,5 hPa 0,0 l/m 0 min 0 min 46 W/m 16,1 km/h (3 Bft) 100,00 %
05.03.2020 08:48 5,3 C 4,4 C 4,4 C 94 % 999,5 hPa 0,0 l/m 0 min 0 min 44 W/m 19,3 km/h (3 Bft) 100,00 %
05.03.2020 08:50 5,3 C 4,4 C 4,4 C 94 % 999,5 hPa 0,0 l/m 0 min 0 min 48 W/m 16,1 km/h (3 Bft) 100,00 %
05.03.2020 08:52 5,3 C 4,4 C 4,4 C 94 % 999,5 hPa 0,0 l/m 0 min 0 min 56 W/m 16,1 km/h (3 Bft) 97,87 %
05.03.2020 08:54 5,3 C 4,4 C 4,4 C 94 % 999,5 hPa 0,0 l/m 0 min 0 min 63 W/m 19,3 km/h (3 Bft) 100,00 %
05.03.2020 08:56 5,3 C 4,4 C 4,4 C 94 % 999,4 hPa 0,0 l/m 0 min 0 min 73 W/m 19,3 km/h (3 Bft) 100,00 %
05.03.2020 08:58 5,3 C 5,0 C 4,4 C 94 % 999,4 hPa 0,0 l/m 0 min 0 min 78 W/m 16,1 km/h (3 Bft) 100,00 %
05.03.2020 09:00 5,4 C 5,0 C 4,4 C 94 % 999,4 hPa 0,0 l/m 0 min 0 min 91 W/m 19,3 km/h (3 Bft) 100,00 %
05.03.2020 09:02 5,4 C 5,0 C 4,4 C 94 % 999,4 hPa 0,0 l/m 0 min 0 min 96 W/m 19,3 km/h (3 Bft) 97,87 %
05.03.2020 09:04 5,4 C 5,0 C 5,0 C 94 % 999,3 hPa 0,0 l/m 0 min 0 min 102 W/m 12,9 km/h (3 Bft) 100,00 %
05.03.2020 09:06 5,4 C 5,0 C 5,0 C 94 % 999,3 hPa 0,0 l/m 0 min 0 min 98 W/m 0,0 km/h (0 Bft) 100,00 %
05.03.2020 09:08 5,5 C 5,0 C 5,0 C 94 % 999,3 hPa 0,0 l/m 0 min 0 min 93 W/m 16,1 km/h (3 Bft) 100,00 %
05.03.2020 09:10 5,5 C 5,0 C 5,0 C 94 % 999,3 hPa 0,0 l/m 0 min 0 min 90 W/m 22,5 km/h (4 Bft) 97,87 %
05.03.2020 09:12 5,5 C 5,0 C 5,0 C 94 % 999,2 hPa 0,0 l/m 0 min 0 min 85 W/m 16,1 km/h (3 Bft) 100,00 %
05.03.2020 09:14 5,6 C 5,0 C 4,4 C 94 % 999,1 hPa 0,0 l/m 0 min 0 min 83 W/m 22,5 km/h (4 Bft) 96,30 %
05.03.2020 09:16 5,6 C 5,0 C 5,0 C 94 % 999,1 hPa 0,0 l/m 0 min 0 min 85 W/m 19,3 km/h (3 Bft) 97,37 %
05.03.2020 09:18 5,6 C 5,0 C 5,0 C 94 % 999,1 hPa 0,0 l/m 0 min 0 min 88 W/m 19,3 km/h (3 Bft) 95,74 %
05.03.2020 09:20 5,6 C 5,0 C 5,0 C 94 % 999,0 hPa 0,0 l/m 0 min 0 min 82 W/m 19,3 km/h (3 Bft) 100,00 %
05.03.2020 09:22 5,6 C 5,0 C 5,0 C 94 % 999,0 hPa 0,0 l/m 0 min 0 min 79 W/m 22,5 km/h (4 Bft) 97,87 %
05.03.2020 09:24 5,6 C 5,0 C 5,0 C 94 % 998,9 hPa 0,0 l/m 0 min 0 min 78 W/m 19,3 km/h (3 Bft) 97,87 %
05.03.2020 09:26 5,6 C 5,0 C 5,0 C 94 % 998,8 hPa 0,0 l/m 0 min 0 min 74 W/m 16,1 km/h (3 Bft) 97,83 %
05.03.2020 09:28 5,6 C 5,0 C 5,0 C 94 % 998,8 hPa 0,0 l/m 0 min 0 min 72 W/m 6,4 km/h (2 Bft) 95,74 %
05.03.2020 09:30 5,6 C 5,0 C 5,0 C 94 % 998,8 hPa 0,0 l/m 0 min 0 min 67 W/m 19,3 km/h (3 Bft) 95,74 %
05.03.2020 09:32 5,7 C 5,0 C 5,0 C 94 % 998,7 hPa 0,0 l/m 0 min 0 min 65 W/m 25,7 km/h (4 Bft) 93,62 %
05.03.2020 09:34 5,7 C 5,0 C 5,0 C 94 % 998,7 hPa 0,0 l/m 0 min 0 min 69 W/m 22,5 km/h (4 Bft) 95,74 %
05.03.2020 09:36 5,7 C 5,0 C 5,0 C 94 % 998,6 hPa 0,0 l/m 0 min 0 min 73 W/m 25,7 km/h (4 Bft) 95,74 %
05.03.2020 09:38 5,7 C 5,0 C 5,0 C 94 % 998,5 hPa 0,0 l/m 0 min 0 min 74 W/m 19,3 km/h (3 Bft) 97,83 %
05.03.2020 09:40 5,7 C 5,0 C 5,0 C 94 % 998,5 hPa 0,0 l/m 0 min 0 min 84 W/m 25,7 km/h (4 Bft) 93,62 %
05.03.2020 09:42 5,7 C 5,0 C 5,0 C 94 % 998,4 hPa 0,0 l/m 0 min 0 min 90 W/m 22,5 km/h (4 Bft) 95,83 %
05.03.2020 09:44 5,7 C 5,0 C 5,0 C 94 % 998,4 hPa 0,0 l/m 0 min 0 min 89 W/m 22,5 km/h (4 Bft) 95,74 %
05.03.2020 09:46 5,7 C 5,0 C 5,0 C 94 % 998,4 hPa 0,0 l/m 0 min 0 min 88 W/m 25,7 km/h (4 Bft) 91,49 %
05.03.2020 09:48 5,7 C 5,0 C 5,0 C 93 % 998,4 hPa 0,0 l/m 0 min 0 min 88 W/m 19,3 km/h (3 Bft) 95,74 %
05.03.2020 09:50 5,8 C 5,0 C 5,0 C 93 % 998,3 hPa 0,0 l/m 0 min 0 min 87 W/m 22,5 km/h (4 Bft) 95,74 %
05.03.2020 09:52 5,8 C 5,0 C 5,0 C 93 % 998,3 hPa 0,0 l/m 0 min 0 min 90 W/m 22,5 km/h (4 Bft) 91,49 %
05.03.2020 09:54 5,8 C 5,6 C 5,0 C 93 % 998,3 hPa 0,0 l/m 0 min 0 min 93 W/m 16,1 km/h (3 Bft) 95,65 %
05.03.2020 09:56 5,8 C 5,6 C 5,0 C 93 % 998,3 hPa 0,0 l/m 0 min 0 min 102 W/m 19,3 km/h (3 Bft) 93,62 %
05.03.2020 09:58 5,8 C 5,6 C 5,0 C 93 % 998,3 hPa 0,0 l/m 0 min 0 min 114 W/m 22,5 km/h (4 Bft) 93,62 %
05.03.2020 10:00 5,8 C 5,6 C 5,6 C 93 % 998,2 hPa 0,0 l/m 0 min 0 min 124 W/m 19,3 km/h (3 Bft) 95,74 %
05.03.2020 10:02 5,9 C 5,6 C 5,6 C 93 % 998,2 hPa 0,0 l/m 0 min 0 min 127 W/m 22,5 km/h (4 Bft) 93,62 %
05.03.2020 10:04 5,9 C 6,1 C 5,6 C 93 % 998,1 hPa 0,0 l/m 0 min 0 min 134 W/m 22,5 km/h (4 Bft) 95,74 %
05.03.2020 10:06 5,9 C 6,1 C 5,6 C 93 % 998,1 hPa 0,0 l/m 0 min 0 min 140 W/m 16,1 km/h (3 Bft) 95,65 %
05.03.2020 10:08 6,0 C 6,1 C 5,6 C 93 % 998,1 hPa 0,0 l/m 0 min 0 min 144 W/m 16,1 km/h (3 Bft) 95,74 %
05.03.2020 10:10 6,1 C 6,1 C 5,6 C 93 % 998,1 hPa 0,0 l/m 0 min 0 min 147 W/m 19,3 km/h (3 Bft) 93,62 %
05.03.2020 10:12 6,1 C 6,1 C 5,6 C 93 % 998,0 hPa 0,0 l/m 0 min 0 min 153 W/m 25,7 km/h (4 Bft) 97,87 %
05.03.2020 10:14 6,1 C 6,1 C 5,6 C 93 % 998,0 hPa 0,0 l/m 0 min 0 min 159 W/m 25,7 km/h (4 Bft) 100,00 %
05.03.2020 10:16 6,1 C 6,7 C 6,1 C 93 % 998,0 hPa 0,0 l/m 0 min 0 min 163 W/m 16,1 km/h (3 Bft) 100,00 %
05.03.2020 10:18 6,2 C 6,7 C 6,1 C 93 % 997,9 hPa 0,0 l/m 0 min 0 min 170 W/m 22,5 km/h (4 Bft) 100,00 %
05.03.2020 10:20 6,2 C 6,7 C 6,1 C 93 % 997,9 hPa 0,0 l/m 0 min 0 min 174 W/m 25,7 km/h (4 Bft) 95,74 %
05.03.2020 10:22 6,2 C 6,7 C 6,1 C 93 % 997,9 hPa 0,0 l/m 0 min 0 min 173 W/m 19,3 km/h (3 Bft) 97,87 %
05.03.2020 10:24 6,3 C 6,7 C 6,1 C 93 % 997,8 hPa 0,0 l/m 0 min 0 min 172 W/m 22,5 km/h (4 Bft) 97,87 %
05.03.2020 10:26 6,3 C 6,7 C 6,1 C 93 % 997,8 hPa 0,0 l/m 0 min 0 min 167 W/m 22,5 km/h (4 Bft) 95,74 %
05.03.2020 10:28 6,3 C 6,7 C 6,1 C 92 % 997,8 hPa 0,0 l/m 0 min 0 min 157 W/m 25,7 km/h (4 Bft) 97,87 %
05.03.2020 10:30 6,3 C 6,7 C 6,1 C 92 % 997,7 hPa 0,0 l/m 0 min 0 min 154 W/m 22,5 km/h (4 Bft) 40,00 %
05.03.2020 10:32 6,4 C 6,7 C 6,1 C 92 % 997,7 hPa 0,0 l/m 0 min 0 min 155 W/m 19,3 km/h (3 Bft) 97,87 %
05.03.2020 10:34 6,4 C 6,7 C 6,1 C 92 % 997,6 hPa 0,0 l/m 0 min 0 min 168 W/m 19,3 km/h (3 Bft) 95,74 %
05.03.2020 10:36 6,4 C 6,7 C 6,1 C 92 % 997,5 hPa 0,0 l/m 0 min 0 min 174 W/m 25,7 km/h (4 Bft) 95,74 %
05.03.2020 10:38 6,5 C 6,7 C 6,1 C 92 % 997,6 hPa 0,0 l/m 0 min 0 min 172 W/m 22,5 km/h (4 Bft) 97,87 %
05.03.2020 10:40 6,5 C 6,7 C 6,1 C 92 % 997,5 hPa 0,0 l/m 0 min 0 min 177 W/m 22,5 km/h (4 Bft) 97,83 %
05.03.2020 10:42 6,5 C 6,7 C 6,1 C 92 % 997,5 hPa 0,0 l/m 0 min 0 min 165 W/m 25,7 km/h (4 Bft) 97,87 %
05.03.2020 10:44 6,6 C 6,7 C 6,1 C 91 % 997,5 hPa 0,0 l/m 0 min 0 min 149 W/m 29,0 km/h (5 Bft) 100,00 %
05.03.2020 10:46 6,6 C 6,7 C 6,1 C 91 % 997,5 hPa 0,0 l/m 0 min 0 min 142 W/m 22,5 km/h (4 Bft) 97,87 %
05.03.2020 10:48 6,6 C 6,7 C 6,1 C 91 % 997,4 hPa 0,0 l/m 0 min 0 min 130 W/m 22,5 km/h (4 Bft) 97,87 %
05.03.2020 10:50 6,6 C 6,7 C 6,1 C 91 % 997,3 hPa 0,0 l/m 0 min 0 min 125 W/m 25,7 km/h (4 Bft) 97,87 %
05.03.2020 10:52 6,6 C 6,7 C 6,1 C 91 % 997,3 hPa 0,0 l/m 0 min 0 min 121 W/m 19,3 km/h (3 Bft) 97,87 %
05.03.2020 10:54 6,7 C 6,7 C 6,1 C 91 % 997,3 hPa 0,0 l/m 0 min 0 min 124 W/m 22,5 km/h (4 Bft) 97,83 %
05.03.2020 10:56 6,7 C 6,7 C 6,1 C 91 % 997,3 hPa 0,0 l/m 0 min 0 min 128 W/m 22,5 km/h (4 Bft) 97,87 %
05.03.2020 10:58 6,7 C 6,7 C 6,1 C 91 % 997,2 hPa 0,0 l/m 0 min 0 min 126 W/m 22,5 km/h (4 Bft) 97,87 %
05.03.2020 11:00 6,7 C 6,7 C 6,1 C 91 % 997,2 hPa 0,0 l/m 0 min 0 min 117 W/m 16,1 km/h (3 Bft) 95,74 %
05.03.2020 11:02 6,7 C 6,7 C 6,1 C 91 % 997,2 hPa 0,0 l/m 0 min 0 min 117 W/m 22,5 km/h (4 Bft) 97,87 %
05.03.2020 11:04 6,7 C 6,7 C 6,1 C 91 % 997,1 hPa 0,0 l/m 0 min 0 min 117 W/m 22,5 km/h (4 Bft) 97,83 %
05.03.2020 11:06 6,8 C 6,7 C 6,1 C 91 % 997,0 hPa 0,0 l/m 0 min 0 min 112 W/m 22,5 km/h (4 Bft) 97,87 %
05.03.2020 11:08 6,8 C 6,7 C 6,1 C 91 % 997,0 hPa 0,0 l/m 0 min 0 min 114 W/m 19,3 km/h (3 Bft) 97,87 %
05.03.2020 11:10 6,8 C 6,7 C 6,1 C 91 % 996,9 hPa 0,0 l/m 0 min 0 min 119 W/m 22,5 km/h (4 Bft) 97,87 %
05.03.2020 11:12 6,8 C 6,7 C 6,1 C 91 % 996,7 hPa 0,0 l/m 0 min 0 min 127 W/m 16,1 km/h (3 Bft) 100,00 %
05.03.2020 11:14 6,8 C 6,7 C 6,1 C 91 % 996,6 hPa 0,0 l/m 0 min 0 min 121 W/m 16,1 km/h (3 Bft) 100,00 %
05.03.2020 11:16 6,8 C 7,2 C 6,7 C 91 % 996,7 hPa 0,0 l/m 0 min 0 min 123 W/m 16,1 km/h (3 Bft) 100,00 %
05.03.2020 11:18 6,9 C 7,2 C 6,7 C 91 % 996,7 hPa 0,0 l/m 0 min 0 min 131 W/m 19,3 km/h (3 Bft) 100,00 %
05.03.2020 11:20 6,9 C 7,2 C 6,7 C 91 % 996,6 hPa 0,0 l/m 0 min 0 min 128 W/m 19,3 km/h (3 Bft) 95,74 %
05.03.2020 11:22 6,9 C 7,2 C 6,7 C 91 % 996,5 hPa 0,0 l/m 0 min 0 min 140 W/m 25,7 km/h (4 Bft) 97,87 %
05.03.2020 11:24 6,9 C 7,2 C 6,7 C 90 % 996,5 hPa 0,0 l/m 0 min 0 min 144 W/m 16,1 km/h (3 Bft) 100,00 %
05.03.2020 11:26 6,9 C 7,2 C 6,7 C 90 % 996,4 hPa 0,0 l/m 0 min 0 min 149 W/m 29,0 km/h (5 Bft) 100,00 %
05.03.2020 11:28 6,9 C 7,2 C 6,7 C 90 % 996,3 hPa 0,0 l/m 0 min 0 min 154 W/m 25,7 km/h (4 Bft) 97,83 %
05.03.2020 11:30 7,0 C 7,2 C 6,7 C 90 % 996,3 hPa 0,0 l/m 0 min 0 min 165 W/m 19,3 km/h (3 Bft) 100,00 %
05.03.2020 11:32 7,0 C 7,2 C 6,7 C 90 % 996,3 hPa 0,0 l/m 0 min 0 min 162 W/m 22,5 km/h (4 Bft) 100,00 %
05.03.2020 11:34 7,1 C 7,2 C 6,7 C 90 % 996,4 hPa 0,0 l/m 0 min 0 min 141 W/m 25,7 km/h (4 Bft) 100,00 %
05.03.2020 11:36 7,1 C 7,2 C 6,7 C 90 % 996,4 hPa 0,0 l/m 0 min 0 min 131 W/m 38,6 km/h (5 Bft) 100,00 %
05.03.2020 11:38 7,1 C 7,2 C 6,7 C 90 % 996,4 hPa 0,0 l/m 0 min 0 min 129 W/m 16,1 km/h (3 Bft) 100,00 %
05.03.2020 11:40 7,1 C 7,2 C 6,7 C 90 % 996,3 hPa 0,0 l/m 0 min 0 min 130 W/m 19,3 km/h (3 Bft) 100,00 %
05.03.2020 11:42 7,1 C 7,2 C 6,7 C 90 % 996,3 hPa 0,0 l/m 0 min 0 min 117 W/m 22,5 km/h (4 Bft) 100,00 %
05.03.2020 11:44 7,1 C 7,2 C 6,7 C 90 % 996,3 hPa 0,0 l/m 0 min 0 min 109 W/m 22,5 km/h (4 Bft) 100,00 %
05.03.2020 11:46 7,1 C 7,2 C 6,7 C 89 % 996,2 hPa 0,0 l/m 0 min 0 min 102 W/m 22,5 km/h (4 Bft) 97,87 %
05.03.2020 11:48 7,1 C 7,2 C 6,7 C 89 % 996,1 hPa 0,0 l/m 0 min 0 min 109 W/m 19,3 km/h (3 Bft) 100,00 %
05.03.2020 11:50 7,1 C 7,2 C 6,7 C 89 % 996,1 hPa 0,0 l/m 0 min 0 min 123 W/m 16,1 km/h (3 Bft) 97,83 %
05.03.2020 11:52 7,2 C 7,2 C 6,7 C 89 % 996,0 hPa 0,0 l/m 0 min 0 min 130 W/m 22,5 km/h (4 Bft) 100,00 %
05.03.2020 11:54 7,2 C 7,2 C 6,7 C 89 % 995,9 hPa 0,0 l/m 0 min 0 min 144 W/m 16,1 km/h (3 Bft) 95,74 %
05.03.2020 11:56 7,2 C 7,2 C 6,7 C 89 % 995,8 hPa 0,0 l/m 0 min 0 min 144 W/m 19,3 km/h (3 Bft) 97,87 %
05.03.2020 11:58 7,2 C 7,2 C 6,7 C 89 % 995,7 hPa 0,0 l/m 0 min 0 min 137 W/m 29,0 km/h (5 Bft) 95,74 %
05.03.2020 12:00 7,2 C 7,2 C 6,7 C 89 % 995,8 hPa 0,0 l/m 0 min 0 min 142 W/m 25,7 km/h (4 Bft) 95,74 %
05.03.2020 12:02 7,2 C 7,2 C 6,7 C 89 % 995,9 hPa 0,0 l/m 0 min 0 min 140 W/m 25,7 km/h (4 Bft) 95,65 %
05.03.2020 12:04 7,2 C 7,2 C 6,7 C 89 % 996,0 hPa 0,0 l/m 0 min 0 min 116 W/m 32,2 km/h (5 Bft) 96,23 %
05.03.2020 12:08 7,3 C 6,7 C 6,7 C 89 % 996,1 hPa 0,0 l/m 0 min 0 min 93 W/m 29,0 km/h (5 Bft) 96,77 %
05.03.2020 12:10 7,2 C 6,7 C 6,7 C 89 % 996,1 hPa 0,0 l/m 0 min 0 min 85 W/m 29,0 km/h (5 Bft) 95,74 %
05.03.2020 12:12 7,3 C 6,7 C 6,7 C 89 % 996,0 hPa 0,0 l/m 0 min 0 min 83 W/m 16,1 km/h (3 Bft) 95,74 %
05.03.2020 12:14 7,3 C 6,7 C 6,7 C 89 % 995,9 hPa 0,0 l/m 0 min 0 min 82 W/m 19,3 km/h (3 Bft) 93,62 %
05.03.2020 12:16 7,2 C 6,7 C 6,1 C 89 % 995,7 hPa 0,0 l/m 0 min 0 min 82 W/m 25,7 km/h (4 Bft) 93,62 %
05.03.2020 12:18 7,2 C 6,7 C 6,1 C 89 % 995,6 hPa 0,0 l/m 0 min 0 min 83 W/m 29,0 km/h (5 Bft) 93,48 %
05.03.2020 12:20 7,2 C 6,7 C 6,1 C 89 % 995,6 hPa 0,0 l/m 0 min 0 min 85 W/m 29,0 km/h (5 Bft) 95,74 %
05.03.2020 12:22 7,2 C 6,7 C 6,1 C 89 % 995,5 hPa 0,0 l/m 0 min 0 min 96 W/m 19,3 km/h (3 Bft) 95,74 %
05.03.2020 12:24 7,2 C 6,7 C 6,1 C 89 % 995,5 hPa 0,0 l/m 0 min 0 min 103 W/m 22,5 km/h (4 Bft) 94,74 %
05.03.2020 12:26 7,2 C 6,7 C 6,1 C 89 % 995,5 hPa 0,0 l/m 0 min 0 min 99 W/m 25,7 km/h (4 Bft) 95,74 %
05.03.2020 12:28 7,2 C 6,7 C 6,7 C 89 % 995,5 hPa 0,0 l/m 0 min 0 min 95 W/m 22,5 km/h (4 Bft) 95,74 %
05.03.2020 12:30 7,2 C 6,7 C 6,7 C 89 % 995,5 hPa 0,0 l/m 0 min 0 min 88 W/m 22,5 km/h (4 Bft) 93,62 %
05.03.2020 12:32 7,2 C 6,7 C 6,1 C 89 % 995,5 hPa 0,0 l/m 0 min 0 min 83 W/m 22,5 km/h (4 Bft) 95,74 %
05.03.2020 12:34 7,2 C 6,7 C 6,1 C 89 % 995,5 hPa 0,0 l/m 0 min 0 min 71 W/m 38,6 km/h (5 Bft) 91,49 %
05.03.2020 12:36 7,2 C 6,7 C 6,1 C 89 % 995,6 hPa 0,0 l/m 0 min 0 min 64 W/m 38,6 km/h (5 Bft) 95,74 %
05.03.2020 12:38 7,1 C 6,7 C 6,1 C 89 % 995,6 hPa 0,0 l/m 0 min 0 min 63 W/m 19,3 km/h (3 Bft) 95,65 %
05.03.2020 12:40 7,1 C 6,7 C 6,1 C 89 % 995,6 hPa 0,0 l/m 0 min 0 min 63 W/m 29,0 km/h (5 Bft) 95,74 %
05.03.2020 12:42 7,1 C 6,7 C 6,1 C 89 % 995,5 hPa 0,0 l/m 0 min 0 min 65 W/m 35,4 km/h (5 Bft) 93,62 %
05.03.2020 12:44 7,1 C 6,7 C 6,1 C 89 % 995,5 hPa 0,0 l/m 0 min 0 min 67 W/m 22,5 km/h (4 Bft) 97,87 %
05.03.2020 12:46 7,1 C 6,7 C 6,1 C 89 % 995,5 hPa 0,0 l/m 0 min 0 min 70 W/m 19,3 km/h (3 Bft) 97,87 %
05.03.2020 12:48 7,1 C 6,7 C 6,1 C 90 % 995,5 hPa 0,0 l/m 0 min 0 min 76 W/m 16,1 km/h (3 Bft) 97,87 %
05.03.2020 12:50 7,1 C 6,7 C 6,1 C 90 % 995,4 hPa 0,0 l/m 0 min 0 min 71 W/m 25,7 km/h (4 Bft) 95,65 %
05.03.2020 12:52 7,2 C 6,7 C 6,1 C 90 % 995,3 hPa 0,0 l/m 0 min 0 min 69 W/m 22,5 km/h (4 Bft) 97,87 %
05.03.2020 12:54 7,2 C 6,7 C 6,1 C 90 % 995,3 hPa 0,0 l/m 0 min 0 min 71 W/m 19,3 km/h (3 Bft) 97,87 %
05.03.2020 12:56 7,2 C 6,7 C 6,1 C 90 % 995,2 hPa 0,0 l/m 0 min 0 min 73 W/m 25,7 km/h (4 Bft) 100,00 %
05.03.2020 12:58 7,2 C 6,7 C 6,1 C 90 % 995,2 hPa 0,0 l/m 0 min 0 min 67 W/m 22,5 km/h (4 Bft) 95,74 %
05.03.2020 13:00 7,2 C 6,7 C 6,1 C 90 % 995,2 hPa 0,0 l/m 0 min 0 min 62 W/m 22,5 km/h (4 Bft) 97,87 %
05.03.2020 13:02 7,2 C 6,7 C 6,1 C 90 % 995,1 hPa 0,0 l/m 0 min 0 min 60 W/m 29,0 km/h (5 Bft) 100,00 %
05.03.2020 13:04 7,1 C 6,7 C 6,1 C 90 % 995,1 hPa 0,0 l/m 0 min 0 min 63 W/m 25,7 km/h (4 Bft) 100,00 %
05.03.2020 13:06 7,1 C 6,7 C 6,1 C 90 % 995,0 hPa 0,0 l/m 0 min 0 min 63 W/m 25,7 km/h (4 Bft) 100,00 %
05.03.2020 13:08 7,1 C 6,7 C 6,1 C 90 % 995,0 hPa 0,0 l/m 0 min 0 min 63 W/m 25,7 km/h (4 Bft) 100,00 %
05.03.2020 13:10 7,1 C 6,7 C 6,1 C 90 % 994,9 hPa 0,0 l/m 0 min 0 min 69 W/m 22,5 km/h (4 Bft) 100,00 %
05.03.2020 13:12 7,1 C 6,7 C 6,1 C 90 % 994,8 hPa 0,0 l/m 0 min 0 min 74 W/m 19,3 km/h (3 Bft) 97,87 %
05.03.2020 13:14 7,1 C 6,7 C 6,1 C 90 % 994,7 hPa 0,0 l/m 0 min 0 min 82 W/m 25,7 km/h (4 Bft) 100,00 %
05.03.2020 13:16 7,1 C 6,7 C 6,1 C 90 % 994,6 hPa 0,0 l/m 0 min 0 min 86 W/m 29,0 km/h (5 Bft) 100,00 %
05.03.2020 13:18 7,1 C 6,7 C 6,1 C 90 % 994,6 hPa 0,0 l/m 0 min 0 min 88 W/m 12,9 km/h (3 Bft) 100,00 %
05.03.2020 13:20 7,1 C 6,7 C 6,7 C 90 % 994,6 hPa 0,0 l/m 0 min 0 min 86 W/m 12,9 km/h (3 Bft) 100,00 %
05.03.2020 13:22 7,1 C 7,2 C 6,7 C 91 % 994,5 hPa 0,0 l/m 0 min 0 min 91 W/m 19,3 km/h (3 Bft) 100,00 %
05.03.2020 13:24 7,2 C 7,2 C 6,7 C 91 % 994,4 hPa 0,0 l/m 0 min 0 min 88 W/m 12,9 km/h (3 Bft) 100,00 %
05.03.2020 13:26 7,2 C 6,7 C 6,7 C 91 % 994,4 hPa 0,0 l/m 0 min 0 min 88 W/m 25,7 km/h (4 Bft) 97,83 %
05.03.2020 13:28 7,2 C 7,2 C 6,7 C 91 % 994,4 hPa 0,0 l/m 0 min 0 min 84 W/m 16,1 km/h (3 Bft) 100,00 %
05.03.2020 13:30 7,2 C 7,2 C 6,7 C 91 % 994,3 hPa 0,0 l/m 0 min 0 min 83 W/m 25,7 km/h (4 Bft) 84,21 %
05.03.2020 13:35 7,2 C 7,2 C 6,7 C 91 % 994,2 hPa 0,0 l/m 0 min 0 min 76 W/m 16,1 km/h (3 Bft) 100,00 %
05.03.2020 13:40 7,2 C 6,7 C 6,7 C 91 % 994,0 hPa 0,0 l/m 0 min 0 min 79 W/m 22,5 km/h (4 Bft) 100,00 %
05.03.2020 13:44 7,2 C 7,2 C 6,7 C 91 % 993,9 hPa 0,0 l/m 0 min 0 min 90 W/m 16,1 km/h (3 Bft) 97,50 %
05.03.2020 13:46 7,3 C 7,2 C 6,7 C 91 % 993,8 hPa 0,0 l/m 0 min 0 min 86 W/m 16,1 km/h (3 Bft) 95,65 %
05.03.2020 13:48 7,3 C 7,2 C 6,7 C 91 % 993,7 hPa 0,0 l/m 0 min 0 min 76 W/m 19,3 km/h (3 Bft) 97,87 %
05.03.2020 13:50 7,3 C 7,2 C 6,7 C 91 % 993,7 hPa 0,0 l/m 0 min 0 min 69 W/m 22,5 km/h (4 Bft) 97,87 %
05.03.2020 13:52 7,3 C 7,2 C 6,7 C 91 % 993,7 hPa 0,0 l/m 0 min 0 min 69 W/m 16,1 km/h (3 Bft) 97,87 %
05.03.2020 13:54 7,3 C 7,2 C 6,7 C 91 % 993,6 hPa 0,0 l/m 0 min 0 min 63 W/m 12,9 km/h (3 Bft) 97,87 %
05.03.2020 13:56 7,3 C 7,2 C 6,7 C 91 % 993,6 hPa 0,0 l/m 0 min 0 min 56 W/m 19,3 km/h (3 Bft) 97,87 %
05.03.2020 13:58 7,3 C 7,2 C 6,7 C 91 % 993,5 hPa 0,0 l/m 0 min 0 min 63 W/m 16,1 km/h (3 Bft) 97,83 %
05.03.2020 14:00 7,3 C 7,2 C 6,7 C 91 % 993,5 hPa 0,0 l/m 0 min 0 min 72 W/m 22,5 km/h (4 Bft) 97,87 %
05.03.2020 14:02 7,3 C 7,2 C 6,7 C 91 % 993,4 hPa 0,0 l/m 0 min 0 min 81 W/m 16,1 km/h (3 Bft) 97,87 %
05.03.2020 14:04 7,3 C 7,2 C 6,7 C 91 % 993,3 hPa 0,0 l/m 0 min 0 min 93 W/m 12,9 km/h (3 Bft) 97,87 %
05.03.2020 14:06 7,4 C 7,2 C 6,7 C 91 % 993,3 hPa 0,0 l/m 0 min 2 min 94 W/m 22,5 km/h (4 Bft) 97,87 %
05.03.2020 14:08 7,4 C 6,7 C 6,7 C 91 % 993,3 hPa 0,0 l/m 0 min 0 min 92 W/m 22,5 km/h (4 Bft) 97,87 %
05.03.2020 14:10 7,4 C 6,7 C 6,1 C 91 % 993,3 hPa 0,0 l/m 0 min 0 min 79 W/m 19,3 km/h (3 Bft) 97,83 %
05.03.2020 14:12 7,4 C 6,7 C 6,1 C 91 % 993,2 hPa 0,0 l/m 0 min 2 min 67 W/m 19,3 km/h (3 Bft) 95,74 %
05.03.2020 14:14 7,4 C 6,7 C 6,1 C 91 % 993,3 hPa 0,0 l/m 0 min 2 min 61 W/m 12,9 km/h (3 Bft) 97,87 %
05.03.2020 14:16 7,4 C 6,7 C 6,1 C 91 % 993,2 hPa 0,0 l/m 0 min 2 min 61 W/m 12,9 km/h (3 Bft) 97,87 %
05.03.2020 14:18 7,4 C 6,7 C 6,1 C 91 % 993,2 hPa 0,0 l/m 0 min 2 min 63 W/m 12,9 km/h (3 Bft) 97,87 %
05.03.2020 14:20 7,4 C 6,7 C 5,6 C 91 % 993,2 hPa 0,0 l/m 0 min 2 min 65 W/m 22,5 km/h (4 Bft) 97,83 %
05.03.2020 14:22 7,4 C 6,1 C 5,6 C 91 % 993,1 hPa 0,0 l/m 0 min 0 min 66 W/m 16,1 km/h (3 Bft) 97,87 %
05.03.2020 14:24 7,4 C 6,1 C 5,6 C 91 % 993,0 hPa 0,0 l/m 0 min 0 min 68 W/m 16,1 km/h (3 Bft) 95,74 %
05.03.2020 14:26 7,4 C 6,1 C 5,6 C 91 % 993,0 hPa 0,0 l/m 0 min 0 min 76 W/m 19,3 km/h (3 Bft) 97,87 %
05.03.2020 14:28 7,4 C 6,1 C 5,6 C 91 % 993,0 hPa 0,0 l/m 0 min 0 min 84 W/m 25,7 km/h (4 Bft) 100,00 %
05.03.2020 14:30 7,4 C 6,7 C 5,6 C 91 % 992,9 hPa 0,0 l/m 0 min 0 min 82 W/m 16,1 km/h (3 Bft) 100,00 %
05.03.2020 14:32 7,4 C 6,7 C 6,1 C 91 % 992,9 hPa 0,0 l/m 0 min 2 min 75 W/m 19,3 km/h (3 Bft) 97,83 %
05.03.2020 14:34 7,4 C 6,1 C 5,6 C 91 % 992,9 hPa 0,0 l/m 0 min 2 min 63 W/m 16,1 km/h (3 Bft) 100,00 %
05.03.2020 14:36 7,4 C 6,1 C 5,6 C 92 % 992,8 hPa 0,0 l/m 0 min 2 min 57 W/m 16,1 km/h (3 Bft) 100,00 %
05.03.2020 14:38 7,3 C 6,1 C 5,6 C 91 % 992,8 hPa 0,0 l/m 0 min 2 min 53 W/m 19,3 km/h (3 Bft) 97,87 %
05.03.2020 14:40 7,3 C 6,1 C 5,6 C 92 % 992,8 hPa 0,0 l/m 0 min 2 min 52 W/m 9,7 km/h (2 Bft) 95,74 %
05.03.2020 14:42 7,3 C 6,1 C 5,6 C 92 % 992,7 hPa 0,0 l/m 0 min 2 min 55 W/m 9,7 km/h (2 Bft) 97,87 %
05.03.2020 14:44 7,3 C 6,1 C 5,6 C 92 % 992,6 hPa 0,0 l/m 0 min 2 min 53 W/m 16,1 km/h (3 Bft) 97,83 %
05.03.2020 14:46 7,3 C 6,1 C 5,6 C 92 % 992,6 hPa 0,0 l/m 0 min 2 min 48 W/m 19,3 km/h (3 Bft) 97,87 %
05.03.2020 14:48 7,3 C 6,1 C 5,6 C 92 % 992,6 hPa 0,0 l/m 0 min 2 min 52 W/m 16,1 km/h (3 Bft) 93,62 %
05.03.2020 14:50 7,3 C 6,1 C 5,6 C 92 % 992,5 hPa 0,0 l/m 0 min 2 min 53 W/m 12,9 km/h (3 Bft) 95,74 %
05.03.2020 14:52 7,3 C 6,1 C 5,6 C 92 % 992,4 hPa 0,2 l/m 0 min 2 min 56 W/m 16,1 km/h (3 Bft) 95,74 %
05.03.2020 14:54 7,3 C 5,6 C 5,6 C 93 % 992,5 hPa 0,0 l/m 0 min 2 min 62 W/m 12,9 km/h (3 Bft) 95,74 %
05.03.2020 14:56 7,2 C 5,6 C 5,6 C 93 % 992,4 hPa 0,0 l/m 0 min 2 min 68 W/m 12,9 km/h (3 Bft) 95,65 %
05.03.2020 14:58 7,2 C 5,6 C 5,6 C 93 % 992,4 hPa 0,0 l/m 0 min 2 min 64 W/m 16,1 km/h (3 Bft) 93,62 %
05.03.2020 15:00 7,2 C 5,6 C 5,6 C 93 % 992,3 hPa 0,0 l/m 0 min 2 min 59 W/m 9,7 km/h (2 Bft) 95,74 %
05.03.2020 15:02 7,2 C 5,6 C 5,6 C 93 % 992,3 hPa 0,0 l/m 0 min 2 min 64 W/m 12,9 km/h (3 Bft) 95,74 %
05.03.2020 15:04 7,2 C 6,1 C 5,6 C 93 % 992,3 hPa 0,0 l/m 0 min 2 min 62 W/m 9,7 km/h (2 Bft) 95,74 %
05.03.2020 15:06 7,2 C 6,1 C 5,6 C 93 % 992,3 hPa 0,0 l/m 0 min 2 min 54 W/m 9,7 km/h (2 Bft) 93,62 %
05.03.2020 15:08 7,2 C 6,1 C 5,6 C 94 % 992,2 hPa 0,0 l/m 0 min 2 min 52 W/m 6,4 km/h (2 Bft) 95,65 %
05.03.2020 15:10 7,2 C 5,6 C 5,6 C 94 % 992,2 hPa 0,0 l/m 0 min 2 min 47 W/m 22,5 km/h (4 Bft) 93,62 %
05.03.2020 15:12 7,2 C 5,6 C 5,6 C 94 % 992,1 hPa 0,2 l/m 0 min 2 min 47 W/m 9,7 km/h (2 Bft) 93,62 %
05.03.2020 15:14 7,2 C 5,6 C 5,6 C 94 % 992,0 hPa 0,0 l/m 0 min 2 min 47 W/m 9,7 km/h (2 Bft) 95,74 %
05.03.2020 15:16 7,2 C 5,6 C 5,6 C 94 % 992,0 hPa 0,0 l/m 0 min 2 min 44 W/m 9,7 km/h (2 Bft) 93,62 %
05.03.2020 15:18 7,1 C 5,6 C 5,6 C 94 % 992,0 hPa 0,0 l/m 0 min 2 min 46 W/m 9,7 km/h (2 Bft) 93,48 %
05.03.2020 15:20 7,1 C 5,6 C 5,6 C 94 % 991,9 hPa 0,2 l/m 0 min 2 min 56 W/m 9,7 km/h (2 Bft) 95,74 %
05.03.2020 15:22 7,1 C 5,6 C 5,6 C 94 % 991,8 hPa 0,0 l/m 0 min 2 min 54 W/m 9,7 km/h (2 Bft) 95,74 %
05.03.2020 15:24 7,1 C 5,6 C 5,6 C 94 % 991,8 hPa 0,0 l/m 0 min 2 min 49 W/m 6,4 km/h (2 Bft) 91,49 %
05.03.2020 15:26 7,1 C 5,6 C 5,0 C 94 % 991,7 hPa 0,0 l/m 0 min 2 min 41 W/m 9,7 km/h (2 Bft) 95,74 %
05.03.2020 15:28 7,1 C 5,6 C 5,0 C 94 % 991,7 hPa 0,0 l/m 0 min 2 min 35 W/m 9,7 km/h (2 Bft) 93,62 %
05.03.2020 15:30 7,1 C 5,6 C 5,0 C 94 % 991,6 hPa 0,2 l/m 0 min 2 min 38 W/m 12,9 km/h (3 Bft) 97,83 %
05.03.2020 15:32 7,0 C 5,6 C 5,0 C 95 % 991,5 hPa 0,0 l/m 0 min 2 min 42 W/m 9,7 km/h (2 Bft) 97,87 %
05.03.2020 15:34 7,0 C 5,6 C 5,0 C 95 % 991,5 hPa 0,0 l/m 0 min 2 min 50 W/m 16,1 km/h (3 Bft) 100,00 %
05.03.2020 15:36 7,0 C 5,6 C 5,0 C 95 % 991,4 hPa 0,0 l/m 0 min 2 min 50 W/m 12,9 km/h (3 Bft) 100,00 %
05.03.2020 15:38 7,0 C 5,6 C 5,0 C 95 % 991,4 hPa 0,2 l/m 0 min 2 min 53 W/m 16,1 km/h (3 Bft) 100,00 %
05.03.2020 15:40 7,0 C 5,6 C 5,6 C 95 % 991,3 hPa 0,0 l/m 0 min 2 min 53 W/m 16,1 km/h (3 Bft) 97,87 %
05.03.2020 15:42 7,0 C 5,6 C 5,6 C 95 % 991,3 hPa 0,0 l/m 0 min 2 min 47 W/m 12,9 km/h (3 Bft) 97,83 %
05.03.2020 15:44 7,0 C 5,6 C 5,6 C 95 % 991,3 hPa 0,0 l/m 0 min 2 min 51 W/m 12,9 km/h (3 Bft) 100,00 %
05.03.2020 15:46 6,9 C 5,6 C 5,6 C 95 % 991,1 hPa 0,0 l/m 0 min 2 min 57 W/m 9,7 km/h (2 Bft) 97,87 %
05.03.2020 15:48 6,9 C 5,6 C 5,6 C 95 % 991,0 hPa 0,0 l/m 0 min 2 min 61 W/m 16,1 km/h (3 Bft) 97,87 %
05.03.2020 15:50 6,9 C 5,6 C 5,6 C 95 % 991,0 hPa 0,0 l/m 0 min 2 min 80 W/m 22,5 km/h (4 Bft) 100,00 %
05.03.2020 15:52 6,9 C 5,6 C 5,6 C 95 % 990,9 hPa 0,0 l/m 0 min 2 min 82 W/m 25,7 km/h (4 Bft) 100,00 %
05.03.2020 15:54 6,9 C 5,6 C 5,6 C 95 % 991,0 hPa 0,0 l/m 0 min 2 min 76 W/m 12,9 km/h (3 Bft) 97,83 %
05.03.2020 15:56 6,9 C 5,6 C 5,6 C 95 % 991,0 hPa 0,0 l/m 0 min 2 min 75 W/m 12,9 km/h (3 Bft) 100,00 %
05.03.2020 15:58 6,9 C 5,6 C 5,6 C 95 % 991,1 hPa 0,0 l/m 0 min 2 min 76 W/m 16,1 km/h (3 Bft) 100,00 %
05.03.2020 16:00 6,9 C 5,6 C 5,6 C 95 % 991,1 hPa 0,0 l/m 0 min 2 min 67 W/m 16,1 km/h (3 Bft) 100,00 %
05.03.2020 16:02 6,9 C 6,1 C 5,6 C 95 % 991,0 hPa 0,2 l/m 0 min 2 min 55 W/m 6,4 km/h (2 Bft) 100,00 %
05.03.2020 16:04 7,0 C 6,1 C 5,6 C 96 % 991,0 hPa 0,0 l/m 0 min 2 min 52 W/m 0,0 km/h (0 Bft) 100,00 %
05.03.2020 16:06 7,0 C 5,6 C 5,6 C 96 % 991,0 hPa 0,0 l/m 0 min 2 min 49 W/m 9,7 km/h (2 Bft) 100,00 %
05.03.2020 16:08 7,0 C 6,1 C 5,6 C 96 % 991,0 hPa 0,0 l/m 0 min 2 min 48 W/m 6,4 km/h (2 Bft) 100,00 %
05.03.2020 16:10 7,0 C 6,1 C 5,6 C 96 % 991,0 hPa 0,0 l/m 0 min 2 min 42 W/m 6,4 km/h (2 Bft) 100,00 %
05.03.2020 16:12 7,0 C 6,1 C 5,6 C 96 % 991,0 hPa 0,0 l/m 0 min 2 min 40 W/m 3,2 km/h (1 Bft) 97,87 %
05.03.2020 16:14 7,0 C 6,1 C 5,6 C 96 % 991,0 hPa 0,0 l/m 0 min 2 min 36 W/m 6,4 km/h (2 Bft) 100,00 %
05.03.2020 16:16 7,1 C 5,6 C 5,6 C 96 % 990,9 hPa 0,0 l/m 0 min 2 min 33 W/m 6,4 km/h (2 Bft) 100,00 %
05.03.2020 16:18 7,1 C 5,6 C 5,6 C 96 % 990,9 hPa 0,2 l/m 0 min 2 min 29 W/m 6,4 km/h (2 Bft) 100,00 %
05.03.2020 16:20 7,0 C 5,6 C 5,6 C 96 % 990,9 hPa 0,0 l/m 0 min 2 min 32 W/m 9,7 km/h (2 Bft) 100,00 %
05.03.2020 16:22 7,0 C 5,6 C 5,6 C 96 % 990,9 hPa 0,0 l/m 0 min 2 min 31 W/m 9,7 km/h (2 Bft) 100,00 %
05.03.2020 16:24 7,0 C 5,6 C 5,6 C 96 % 990,9 hPa 0,0 l/m 0 min 2 min 28 W/m 6,4 km/h (2 Bft) 100,00 %
05.03.2020 16:26 7,0 C 5,6 C 5,6 C 96 % 990,8 hPa 0,0 l/m 0 min 2 min 30 W/m 6,4 km/h (2 Bft) 100,00 %
05.03.2020 16:28 7,0 C 5,6 C 5,6 C 96 % 990,8 hPa 0,0 l/m 0 min 2 min 30 W/m 0,0 km/h (0 Bft) 100,00 %
05.03.2020 16:30 7,0 C 5,6 C 5,6 C 96 % 990,7 hPa 0,0 l/m 0 min 2 min 26 W/m 6,4 km/h (2 Bft) 100,00 %
05.03.2020 16:32 7,0 C 5,6 C 5,6 C 96 % 990,7 hPa 0,0 l/m 0 min 2 min 24 W/m 9,7 km/h (2 Bft) 100,00 %
05.03.2020 16:34 7,0 C 5,6 C 5,6 C 96 % 990,6 hPa 0,0 l/m 0 min 2 min 23 W/m 0,0 km/h (0 Bft) 100,00 %
05.03.2020 16:36 7,0 C 5,6 C 5,6 C 96 % 990,5 hPa 0,0 l/m 0 min 2 min 24 W/m 0,0 km/h (0 Bft) 100,00 %
05.03.2020 16:38 7,0 C 5,6 C 5,6 C 96 % 990,5 hPa 0,0 l/m 0 min 2 min 25 W/m 0,0 km/h (0 Bft) 100,00 %
05.03.2020 16:40 6,9 C 5,6 C 5,6 C 96 % 990,5 hPa 0,0 l/m 0 min 2 min 24 W/m 0,0 km/h (0 Bft) 100,00 %
05.03.2020 16:42 6,9 C 5,6 C 5,6 C 96 % 990,4 hPa 0,2 l/m 0 min 2 min 24 W/m 0,0 km/h (0 Bft) 100,00 %
05.03.2020 16:44 6,9 C 5,6 C 5,6 C 96 % 990,4 hPa 0,0 l/m 0 min 2 min 22 W/m 0,0 km/h (0 Bft) 100,00 %
05.03.2020 16:46 6,9 C 5,6 C 5,6 C 96 % 990,4 hPa 0,0 l/m 0 min 2 min 23 W/m 0,0 km/h (0 Bft) 100,00 %
05.03.2020 16:48 6,9 C 5,6 C 5,6 C 96 % 990,5 hPa 0,0 l/m 0 min 2 min 23 W/m 6,4 km/h (2 Bft) 100,00 %
05.03.2020 16:50 6,9 C 5,6 C 5,6 C 96 % 990,4 hPa 0,0 l/m 0 min 2 min 23 W/m 0,0 km/h (0 Bft) 100,00 %
05.03.2020 16:52 6,9 C 5,6 C 5,6 C 96 % 990,4 hPa 0,2 l/m 0 min 2 min 22 W/m 0,0 km/h (0 Bft) 100,00 %
05.03.2020 16:54 6,9 C 5,6 C 5,0 C 96 % 990,4 hPa 0,0 l/m 0 min 2 min 21 W/m 0,0 km/h (0 Bft) 100,00 %
05.03.2020 16:56 6,9 C 5,6 C 5,0 C 96 % 990,4 hPa 0,0 l/m 0 min 2 min 19 W/m 6,4 km/h (2 Bft) 100,00 %
05.03.2020 16:58 6,9 C 5,6 C 5,0 C 96 % 990,4 hPa 0,0 l/m 0 min 2 min 17 W/m 0,0 km/h (0 Bft) 100,00 %
05.03.2020 17:00 6,9 C 5,6 C 5,0 C 96 % 990,3 hPa 0,0 l/m 0 min 2 min 16 W/m 0,0 km/h (0 Bft) 100,00 %
05.03.2020 17:02 6,9 C 5,6 C 5,0 C 96 % 990,5 hPa 0,0 l/m 0 min 2 min 14 W/m 3,2 km/h (1 Bft) 100,00 %
05.03.2020 17:04 6,9 C 5,6 C 5,0 C 96 % 990,5 hPa 0,0 l/m 0 min 2 min 13 W/m 0,0 km/h (0 Bft) 100,00 %
05.03.2020 17:06 6,9 C 5,6 C 5,0 C 96 % 990,5 hPa 0,0 l/m 0 min 2 min 12 W/m 3,2 km/h (1 Bft) 95,74 %
05.03.2020 17:08 6,8 C 5,6 C 5,0 C 96 % 990,4 hPa 0,0 l/m 0 min 2 min 12 W/m 0,0 km/h (0 Bft) 100,00 %
05.03.2020 17:10 6,8 C 5,6 C 5,0 C 96 % 990,4 hPa 0,0 l/m 0 min 2 min 13 W/m 0,0 km/h (0 Bft) 97,87 %
05.03.2020 17:12 6,8 C 5,6 C 5,0 C 97 % 990,4 hPa 0,0 l/m 0 min 2 min 12 W/m 0,0 km/h (0 Bft) 97,87 %
05.03.2020 17:14 6,8 C 5,6 C 5,0 C 97 % 990,4 hPa 0,0 l/m 0 min 2 min 12 W/m 0,0 km/h (0 Bft) 95,65 %
05.03.2020 17:16 6,8 C 5,6 C 5,0 C 97 % 990,4 hPa 0,2 l/m 0 min 2 min 12 W/m 0,0 km/h (0 Bft) 95,74 %
05.03.2020 17:18 6,8 C 5,6 C 5,0 C 97 % 990,5 hPa 0,0 l/m 0 min 2 min 12 W/m 0,0 km/h (0 Bft) 95,74 %
05.03.2020 17:20 6,8 C 5,6 C 5,0 C 97 % 990,5 hPa 0,0 l/m 0 min 2 min 11 W/m 0,0 km/h (0 Bft) 91,49 %
05.03.2020 17:22 6,8 C 5,6 C 5,0 C 97 % 990,5 hPa 0,0 l/m 0 min 2 min 10 W/m 0,0 km/h (0 Bft) 93,62 %
05.03.2020 17:24 6,8 C 5,6 C 5,0 C 97 % 990,5 hPa 0,2 l/m 0 min 2 min 8 W/m 0,0 km/h (0 Bft) 95,74 %
05.03.2020 17:26 6,8 C 5,6 C 5,0 C 97 % 990,5 hPa 0,0 l/m 0 min 2 min 7 W/m 0,0 km/h (0 Bft) 93,48 %
05.03.2020 17:28 6,8 C 5,6 C 5,0 C 97 % 990,4 hPa 0,0 l/m 0 min 2 min 7 W/m 0,0 km/h (0 Bft) 91,49 %
05.03.2020 17:30 6,8 C 5,6 C 5,0 C 97 % 990,4 hPa 0,0 l/m 0 min 2 min 5 W/m 0,0 km/h (0 Bft) 93,62 %
05.03.2020 17:32 6,8 C 5,6 C 5,0 C 97 % 990,4 hPa 0,0 l/m 0 min 2 min 5 W/m 0,0 km/h (0 Bft) 93,62 %
05.03.2020 17:34 6,8 C 5,6 C 5,0 C 97 % 990,4 hPa 0,0 l/m 0 min 2 min 5 W/m 0,0 km/h (0 Bft) 95,74 %
05.03.2020 17:36 6,8 C 5,6 C 5,0 C 97 % 990,3 hPa 0,2 l/m 0 min 2 min 5 W/m 0,0 km/h (0 Bft) 93,62 %
05.03.2020 17:38 6,8 C 5,6 C 5,0 C 97 % 990,3 hPa 0,0 l/m 0 min 2 min 5 W/m 0,0 km/h (0 Bft) 93,48 %
05.03.2020 17:40 6,8 C 5,6 C 5,0 C 97 % 990,2 hPa 0,0 l/m 0 min 2 min 5 W/m 0,0 km/h (0 Bft) 93,62 %
05.03.2020 17:42 6,8 C 5,6 C 5,0 C 97 % 990,2 hPa 0,2 l/m 0 min 2 min 5 W/m 0,0 km/h (0 Bft) 89,36 %
05.03.2020 17:44 6,8 C 5,6 C 5,0 C 97 % 990,2 hPa 0,0 l/m 0 min 2 min 3 W/m 0,0 km/h (0 Bft) 93,62 %
05.03.2020 17:46 6,8 C 5,6 C 5,0 C 97 % 990,2 hPa 0,0 l/m 0 min 2 min 5 W/m 3,2 km/h (1 Bft) 93,62 %
05.03.2020 17:48 6,7 C 5,6 C 5,0 C 97 % 990,1 hPa 0,2 l/m 0 min 2 min 5 W/m 0,0 km/h (0 Bft) 93,62 %
05.03.2020 17:50 6,7 C 5,6 C 5,0 C 97 % 990,1 hPa 0,0 l/m 0 min 2 min 2 W/m 0,0 km/h (0 Bft) 93,48 %
05.03.2020 17:52 6,7 C 5,6 C 5,0 C 97 % 990,0 hPa 0,2 l/m 0 min 2 min 0 W/m 0,0 km/h (0 Bft) 93,62 %
05.03.2020 17:54 6,7 C 5,6 C 5,0 C 97 % 989,9 hPa 0,0 l/m 0 min 2 min 0 W/m 0,0 km/h (0 Bft) 91,49 %
05.03.2020 17:56 6,7 C 5,6 C 5,0 C 97 % 989,9 hPa 0,0 l/m 0 min 2 min 0 W/m 0,0 km/h (0 Bft) 95,74 %
05.03.2020 17:58 6,7 C 5,6 C 5,0 C 97 % 989,9 hPa 0,2 l/m 0 min 2 min 0 W/m 0,0 km/h (0 Bft) 91,49 %
05.03.2020 18:00 6,7 C 5,6 C 5,0 C 97 % 989,8 hPa 0,0 l/m 0 min 2 min 0 W/m 0,0 km/h (0 Bft) 91,49 %
05.03.2020 18:02 6,7 C 5,6 C 5,0 C 97 % 989,7 hPa 0,2 l/m 0 min 2 min 0 W/m 0,0 km/h (0 Bft) 93,48 %
05.03.2020 18:04 6,7 C 5,6 C 5,0 C 97 % 989,6 hPa 0,0 l/m 0 min 2 min 0 W/m 3,2 km/h (1 Bft) 95,74 %
05.03.2020 18:06 6,7 C 5,6 C 5,0 C 97 % 989,6 hPa 0,0 l/m 0 min 2 min 0 W/m 9,7 km/h (2 Bft) 95,74 %
05.03.2020 18:08 6,6 C 5,6 C 5,0 C 97 % 989,5 hPa 0,0 l/m 0 min 2 min 0 W/m 9,7 km/h (2 Bft) 95,74 %
05.03.2020 18:10 6,6 C 5,6 C 5,0 C 97 % 989,3 hPa 0,0 l/m 0 min 2 min 0 W/m 0,0 km/h (0 Bft) 95,74 %
05.03.2020 18:12 6,6 C 5,6 C 5,0 C 97 % 989,3 hPa 0,2 l/m 0 min 2 min 0 W/m 3,2 km/h (1 Bft) 97,83 %
05.03.2020 18:14 6,6 C 5,6 C 5,0 C 97 % 989,1 hPa 0,0 l/m 0 min 2 min 0 W/m 6,4 km/h (2 Bft) 100,00 %
05.03.2020 18:16 6,6 C 5,6 C 5,0 C 97 % 988,9 hPa 0,2 l/m 0 min 2 min 0 W/m 3,2 km/h (1 Bft) 97,87 %
05.03.2020 18:18 6,6 C 5,6 C 5,0 C 97 % 988,8 hPa 0,0 l/m 0 min 2 min 0 W/m 3,2 km/h (1 Bft) 100,00 %
05.03.2020 18:20 6,5 C 5,6 C 5,0 C 97 % 988,7 hPa 0,0 l/m 0 min 2 min 0 W/m 3,2 km/h (1 Bft) 97,87 %
05.03.2020 18:22 6,5 C 5,6 C 5,0 C 97 % 988,6 hPa 0,0 l/m 0 min 2 min 0 W/m 6,4 km/h (2 Bft) 100,00 %
05.03.2020 18:24 6,5 C 5,6 C 5,0 C 97 % 988,6 hPa 0,0 l/m 0 min 2 min 0 W/m 9,7 km/h (2 Bft) 100,00 %
05.03.2020 18:26 6,5 C 5,0 C 5,0 C 97 % 988,7 hPa 0,0 l/m 0 min 2 min 0 W/m 6,4 km/h (2 Bft) 100,00 %
05.03.2020 18:28 6,5 C 5,0 C 5,0 C 97 % 988,6 hPa 0,2 l/m 0 min 2 min 0 W/m 6,4 km/h (2 Bft) 100,00 %
05.03.2020 18:30 6,4 C 5,0 C 5,0 C 97 % 988,6 hPa 0,0 l/m 0 min 2 min 0 W/m 0,0 km/h (0 Bft) 100,00 %
05.03.2020 18:32 6,4 C 5,0 C 5,0 C 97 % 988,6 hPa 0,0 l/m 0 min 2 min 0 W/m 0,0 km/h (0 Bft) 100,00 %
05.03.2020 18:34 6,4 C 5,0 C 5,0 C 97 % 988,6 hPa 0,0 l/m 0 min 2 min 0 W/m 12,9 km/h (3 Bft) 100,00 %
05.03.2020 18:36 6,4 C 5,0 C 5,0 C 97 % 988,7 hPa 0,0 l/m 0 min 2 min 0 W/m 0,0 km/h (0 Bft) 97,83 %
05.03.2020 18:38 6,4 C 5,0 C 5,0 C 97 % 988,7 hPa 0,0 l/m 0 min 2 min 0 W/m 0,0 km/h (0 Bft) 100,00 %
05.03.2020 18:40 6,3 C 5,0 C 5,0 C 97 % 988,7 hPa 0,0 l/m 0 min 2 min 0 W/m 9,7 km/h (2 Bft) 100,00 %
05.03.2020 18:42 6,3 C 5,0 C 5,0 C 97 % 988,7 hPa 0,0 l/m 0 min 2 min 0 W/m 3,2 km/h (1 Bft) 100,00 %
05.03.2020 18:44 6,3 C 5,0 C 5,0 C 97 % 988,7 hPa 0,0 l/m 0 min 2 min 0 W/m 19,3 km/h (3 Bft) 100,00 %
05.03.2020 18:46 6,3 C 5,0 C 5,0 C 97 % 988,8 hPa 0,0 l/m 0 min 2 min 0 W/m 12,9 km/h (3 Bft) 95,74 %
05.03.2020 18:48 6,3 C 5,0 C 5,0 C 97 % 988,8 hPa 0,0 l/m 0 min 2 min 0 W/m 0,0 km/h (0 Bft) 100,00 %
05.03.2020 18:50 6,3 C 5,0 C 5,0 C 97 % 988,8 hPa 0,0 l/m 0 min 2 min 0 W/m 0,0 km/h (0 Bft) 100,00 %
05.03.2020 18:52 6,3 C 5,0 C 5,0 C 97 % 988,8 hPa 0,2 l/m 0 min 2 min 0 W/m 6,4 km/h (2 Bft) 97,87 %
05.03.2020 18:54 6,3 C 5,0 C 5,0 C 97 % 988,9 hPa 0,0 l/m 0 min 0 min 0 W/m 0,0 km/h (0 Bft) 97,87 %
05.03.2020 18:56 6,3 C 5,0 C 4,4 C 97 % 988,9 hPa 0,0 l/m 0 min 0 min 0 W/m 3,2 km/h (1 Bft) 100,00 %
05.03.2020 18:58 6,3 C 5,0 C 4,4 C 97 % 988,8 hPa 0,0 l/m 0 min 2 min 0 W/m 3,2 km/h (1 Bft) 100,00 %
05.03.2020 19:00 6,3 C 5,0 C 4,4 C 97 % 988,8 hPa 0,0 l/m 0 min 2 min 0 W/m 6,4 km/h (2 Bft) 97,87 %
05.03.2020 19:02 6,3 C 5,0 C 4,4 C 97 % 988,9 hPa 0,0 l/m 0 min 2 min 0 W/m 3,2 km/h (1 Bft) 100,00 %
05.03.2020 19:04 6,3 C 5,0 C 4,4 C 97 % 988,9 hPa 0,0 l/m 0 min 2 min 0 W/m 0,0 km/h (0 Bft) 100,00 %
05.03.2020 19:06 6,3 C 5,0 C 4,4 C 97 % 988,9 hPa 0,0 l/m 0 min 2 min 0 W/m 0,0 km/h (0 Bft) 54,55 %
05.03.2020 19:08 6,3 C 5,0 C 4,4 C 97 % 988,8 hPa 0,0 l/m 0 min 2 min 0 W/m 9,7 km/h (2 Bft) 100,00 %
05.03.2020 19:10 6,2 C 5,0 C 4,4 C 97 % 988,8 hPa 0,0 l/m 0 min 2 min 0 W/m 12,9 km/h (3 Bft) 100,00 %
05.03.2020 19:12 6,2 C 5,0 C 4,4 C 97 % 988,8 hPa 0,0 l/m 0 min 2 min 0 W/m 25,7 km/h (4 Bft) 95,74 %
05.03.2020 19:14 6,2 C 5,0 C 4,4 C 97 % 988,8 hPa 0,0 l/m 0 min 2 min 0 W/m 3,2 km/h (1 Bft) 100,00 %
05.03.2020 19:16 6,2 C 5,0 C 4,4 C 97 % 988,7 hPa 0,0 l/m 0 min 2 min 0 W/m 12,9 km/h (3 Bft) 97,87 %
05.03.2020 19:18 6,2 C 5,0 C 4,4 C 97 % 988,7 hPa 0,0 l/m 0 min 2 min 0 W/m 3,2 km/h (1 Bft) 100,00 %
05.03.2020 19:20 6,2 C 5,0 C 4,4 C 97 % 988,7 hPa 0,2 l/m 0 min 2 min 0 W/m 0,0 km/h (0 Bft) 100,00 %
05.03.2020 19:22 6,2 C 5,0 C 4,4 C 97 % 988,6 hPa 0,0 l/m 0 min 2 min 0 W/m 0,0 km/h (0 Bft) 100,00 %
05.03.2020 19:24 6,2 C 5,0 C 4,4 C 97 % 988,6 hPa 0,2 l/m 0 min 2 min 0 W/m 3,2 km/h (1 Bft) 100,00 %
05.03.2020 19:26 6,2 C 5,0 C 4,4 C 97 % 988,6 hPa 0,0 l/m 0 min 2 min 0 W/m 6,4 km/h (2 Bft) 100,00 %
05.03.2020 19:28 6,1 C 5,0 C 4,4 C 97 % 988,6 hPa 0,0 l/m 0 min 2 min 0 W/m 0,0 km/h (0 Bft) 100,00 %
05.03.2020 19:30 6,1 C 5,0 C 4,4 C 97 % 988,5 hPa 0,0 l/m 0 min 2 min 0 W/m 0,0 km/h (0 Bft) 100,00 %
05.03.2020 19:32 6,1 C 5,0 C 4,4 C 97 % 988,4 hPa 0,0 l/m 0 min 2 min 0 W/m 6,4 km/h (2 Bft) 97,87 %
05.03.2020 19:34 6,1 C 5,0 C 4,4 C 97 % 988,4 hPa 0,0 l/m 0 min 2 min 0 W/m 3,2 km/h (1 Bft) 97,83 %
05.03.2020 19:36 6,1 C 5,0 C 4,4 C 97 % 988,3 hPa 0,0 l/m 0 min 2 min 0 W/m 0,0 km/h (0 Bft) 100,00 %
05.03.2020 19:38 6,1 C 5,0 C 4,4 C 97 % 988,3 hPa 0,2 l/m 0 min 2 min 0 W/m 3,2 km/h (1 Bft) 100,00 %
05.03.2020 19:40 6,1 C 5,0 C 4,4 C 97 % 988,1 hPa 0,0 l/m 0 min 2 min 0 W/m 3,2 km/h (1 Bft) 100,00 %
05.03.2020 19:42 6,1 C 5,0 C 4,4 C 97 % 988,2 hPa 0,0 l/m 0 min 2 min 0 W/m 6,4 km/h (2 Bft) 97,87 %
05.03.2020 19:44 6,1 C 5,0 C 4,4 C 97 % 988,1 hPa 0,0 l/m 0 min 2 min 0 W/m 0,0 km/h (0 Bft) 97,87 %
05.03.2020 19:46 6,1 C 5,0 C 4,4 C 97 % 988,0 hPa 0,0 l/m 0 min 2 min 0 W/m 6,4 km/h (2 Bft) 100,00 %
05.03.2020 19:48 6,1 C 5,0 C 4,4 C 97 % 988,0 hPa 0,2 l/m 0 min 2 min 0 W/m 9,7 km/h (2 Bft) 100,00 %
05.03.2020 19:50 6,0 C 5,0 C 4,4 C 97 % 988,0 hPa 0,0 l/m 0 min 2 min 0 W/m 0,0 km/h (0 Bft) 97,87 %
05.03.2020 19:52 6,0 C 5,0 C 4,4 C 97 % 988,0 hPa 0,0 l/m 0 min 2 min 0 W/m 0,0 km/h (0 Bft) 97,87 %
05.03.2020 19:54 6,0 C 5,0 C 4,4 C 97 % 988,0 hPa 0,0 l/m 0 min 2 min 0 W/m 0,0 km/h (0 Bft) 97,87 %
05.03.2020 19:56 6,0 C 5,0 C 4,4 C 97 % 988,0 hPa 0,0 l/m 0 min 2 min 0 W/m 0,0 km/h (0 Bft) 95,74 %
05.03.2020 19:58 6,0 C 5,0 C 4,4 C 97 % 988,0 hPa 0,0 l/m 0 min 2 min 0 W/m 0,0 km/h (0 Bft) 97,83 %
05.03.2020 20:00 6,0 C 5,0 C 4,4 C 97 % 988,0 hPa 0,0 l/m 0 min 2 min 0 W/m 0,0 km/h (0 Bft) 97,87 %
05.03.2020 20:02 5,9 C 5,0 C 4,4 C 97 % 988,0 hPa 0,0 l/m 0 min 2 min 0 W/m 0,0 km/h (0 Bft) 97,87 %
05.03.2020 20:04 5,9 C 5,0 C 4,4 C 97 % 988,0 hPa 0,0 l/m 0 min 2 min 0 W/m 6,4 km/h (2 Bft) 95,74 %
05.03.2020 20:06 5,9 C 5,0 C 4,4 C 97 % 988,0 hPa 0,0 l/m 0 min 2 min 0 W/m 0,0 km/h (0 Bft) 97,87 %
05.03.2020 20:08 5,9 C 4,4 C 4,4 C 97 % 988,1 hPa 0,0 l/m 0 min 2 min 0 W/m 3,2 km/h (1 Bft) 97,83 %
05.03.2020 20:10 5,9 C 4,4 C 4,4 C 97 % 988,0 hPa 0,2 l/m 0 min 2 min 0 W/m 0,0 km/h (0 Bft) 97,87 %
05.03.2020 20:12 5,9 C 4,4 C 4,4 C 97 % 988,0 hPa 0,0 l/m 0 min 2 min 0 W/m 0,0 km/h (0 Bft) 95,74 %
05.03.2020 20:14 5,9 C 4,4 C 4,4 C 97 % 988,0 hPa 0,2 l/m 0 min 2 min 0 W/m 0,0 km/h (0 Bft) 91,49 %
05.03.2020 20:16 5,9 C 4,4 C 4,4 C 97 % 988,0 hPa 0,0 l/m 0 min 2 min 0 W/m 0,0 km/h (0 Bft) 95,74 %
05.03.2020 20:18 5,9 C 4,4 C 4,4 C 97 % 988,0 hPa 0,0 l/m 0 min 2 min 0 W/m 0,0 km/h (0 Bft) 93,62 %
05.03.2020 20:20 5,9 C 4,4 C 4,4 C 97 % 988,0 hPa 0,0 l/m 0 min 2 min 0 W/m 0,0 km/h (0 Bft) 95,74 %
05.03.2020 20:22 5,9 C 4,4 C 4,4 C 97 % 987,9 hPa 0,2 l/m 0 min 2 min 0 W/m 0,0 km/h (0 Bft) 95,65 %
05.03.2020 20:24 5,9 C 4,4 C 4,4 C 97 % 988,0 hPa 0,0 l/m 0 min 2 min 0 W/m 0,0 km/h (0 Bft) 95,74 %
05.03.2020 20:26 5,9 C 4,4 C 4,4 C 97 % 987,9 hPa 0,2 l/m 0 min 2 min 0 W/m 0,0 km/h (0 Bft) 95,74 %
05.03.2020 20:28 5,9 C 4,4 C 4,4 C 97 % 987,8 hPa 0,0 l/m 0 min 2 min 0 W/m 0,0 km/h (0 Bft) 95,74 %
05.03.2020 20:30 5,9 C 4,4 C 4,4 C 97 % 987,9 hPa 0,2 l/m 0 min 2 min 0 W/m 0,0 km/h (0 Bft) 95,74 %
05.03.2020 20:32 5,9 C 4,4 C 4,4 C 97 % 987,9 hPa 0,0 l/m 0 min 2 min 0 W/m 0,0 km/h (0 Bft) 97,83 %
05.03.2020 20:34 5,8 C 4,4 C 4,4 C 97 % 987,8 hPa 0,2 l/m 0 min 2 min 0 W/m 0,0 km/h (0 Bft) 95,74 %
05.03.2020 20:36 5,8 C 4,4 C 4,4 C 97 % 987,8 hPa 0,0 l/m 0 min 2 min 0 W/m 0,0 km/h (0 Bft) 95,74 %
05.03.2020 20:38 5,8 C 4,4 C 4,4 C 97 % 987,7 hPa 0,0 l/m 0 min 2 min 0 W/m 0,0 km/h (0 Bft) 97,87 %
05.03.2020 20:40 5,8 C 4,4 C 4,4 C 97 % 987,8 hPa 0,2 l/m 0 min 2 min 0 W/m 0,0 km/h (0 Bft) 97,87 %
05.03.2020 20:42 5,8 C 4,4 C 4,4 C 97 % 987,7 hPa 0,0 l/m 0 min 2 min 0 W/m 0,0 km/h (0 Bft) 97,87 %
05.03.2020 20:44 5,8 C 4,4 C 4,4 C 97 % 987,7 hPa 0,2 l/m 0 min 2 min 0 W/m 0,0 km/h (0 Bft) 95,65 %
05.03.2020 20:46 5,8 C 4,4 C 4,4 C 97 % 987,6 hPa 0,0 l/m 0 min 2 min 0 W/m 0,0 km/h (0 Bft) 95,74 %
05.03.2020 20:48 5,8 C 4,4 C 4,4 C 97 % 987,6 hPa 0,0 l/m 0 min 2 min 0 W/m 0,0 km/h (0 Bft) 95,74 %
05.03.2020 20:50 5,8 C 4,4 C 4,4 C 97 % 987,6 hPa 0,0 l/m 0 min 2 min 0 W/m 0,0 km/h (0 Bft) 93,62 %
05.03.2020 20:52 5,8 C 4,4 C 4,4 C 97 % 987,6 hPa 0,0 l/m 0 min 2 min 0 W/m 0,0 km/h (0 Bft) 93,62 %
05.03.2020 20:54 5,8 C 4,4 C 4,4 C 97 % 987,6 hPa 0,2 l/m 0 min 2 min 0 W/m 0,0 km/h (0 Bft) 93,62 %
05.03.2020 20:56 5,8 C 4,4 C 4,4 C 97 % 987,5 hPa 0,0 l/m 0 min 2 min 0 W/m 0,0 km/h (0 Bft) 97,83 %
05.03.2020 20:58 5,7 C 4,4 C 3,9 C 97 % 987,5 hPa 0,2 l/m 0 min 2 min 0 W/m 3,2 km/h (1 Bft) 97,87 %
05.03.2020 21:00 5,7 C 4,4 C 3,9 C 97 % 987,5 hPa 0,0 l/m 0 min 2 min 0 W/m 0,0 km/h (0 Bft) 95,74 %
05.03.2020 21:02 5,7 C 4,4 C 3,9 C 97 % 987,4 hPa 0,0 l/m 0 min 2 min 0 W/m 0,0 km/h (0 Bft) 95,74 %
05.03.2020 21:04 5,7 C 4,4 C 3,9 C 97 % 987,4 hPa 0,0 l/m 0 min 2 min 0 W/m 0,0 km/h (0 Bft) 97,87 %
05.03.2020 21:06 5,7 C 4,4 C 3,9 C 97 % 987,4 hPa 0,0 l/m 0 min 2 min 0 W/m 0,0 km/h (0 Bft) 95,65 %
05.03.2020 21:08 5,7 C 4,4 C 3,9 C 97 % 987,3 hPa 0,0 l/m 0 min 2 min 0 W/m 0,0 km/h (0 Bft) 97,87 %
05.03.2020 21:10 5,7 C 4,4 C 3,9 C 97 % 987,3 hPa 0,0 l/m 0 min 2 min 0 W/m 0,0 km/h (0 Bft) 97,87 %
05.03.2020 21:12 5,7 C 4,4 C 3,9 C 97 % 987,3 hPa 0,2 l/m 0 min 2 min 0 W/m 0,0 km/h (0 Bft) 97,87 %
05.03.2020 21:14 5,7 C 4,4 C 3,9 C 97 % 987,3 hPa 0,0 l/m 0 min 2 min 0 W/m 0,0 km/h (0 Bft) 97,87 %
05.03.2020 21:16 5,7 C 4,4 C 3,9 C 97 % 987,2 hPa 0,0 l/m 0 min 2 min 0 W/m 0,0 km/h (0 Bft) 97,87 %
05.03.2020 21:18 5,7 C 4,4 C 3,9 C 97 % 987,3 hPa 0,0 l/m 0 min 2 min 0 W/m 0,0 km/h (0 Bft) 97,83 %
05.03.2020 21:20 5,6 C 4,4 C 3,9 C 97 % 987,2 hPa 0,2 l/m 0 min 2 min 0 W/m 0,0 km/h (0 Bft) 97,87 %
05.03.2020 21:22 5,7 C 4,4 C 3,9 C 97 % 987,3 hPa 0,0 l/m 0 min 2 min 0 W/m 0,0 km/h (0 Bft) 97,87 %
05.03.2020 21:24 5,6 C 4,4 C 3,9 C 97 % 987,2 hPa 0,0 l/m 0 min 2 min 0 W/m 0,0 km/h (0 Bft) 97,87 %
05.03.2020 21:26 5,6 C 4,4 C 3,9 C 97 % 987,2 hPa 0,0 l/m 0 min 2 min 0 W/m 0,0 km/h (0 Bft) 95,74 %
05.03.2020 21:28 5,6 C 4,4 C 3,9 C 97 % 987,2 hPa 0,2 l/m 0 min 2 min 0 W/m 0,0 km/h (0 Bft) 97,87 %
05.03.2020 21:30 5,6 C 4,4 C 3,9 C 97 % 987,2 hPa 0,0 l/m 0 min 2 min 0 W/m 0,0 km/h (0 Bft) 97,83 %
05.03.2020 21:32 5,6 C 4,4 C 3,9 C 97 % 987,2 hPa 0,0 l/m 0 min 2 min 0 W/m 0,0 km/h (0 Bft) 97,87 %
05.03.2020 21:34 5,6 C 4,4 C 3,9 C 97 % 987,1 hPa 0,2 l/m 0 min 2 min 0 W/m 0,0 km/h (0 Bft) 97,87 %
05.03.2020 21:36 5,6 C 4,4 C 3,9 C 97 % 987,1 hPa 0,0 l/m 0 min 2 min 0 W/m 0,0 km/h (0 Bft) 97,87 %
05.03.2020 21:38 5,6 C 4,4 C 3,9 C 97 % 987,1 hPa 0,2 l/m 0 min 2 min 0 W/m 0,0 km/h (0 Bft) 97,87 %
05.03.2020 21:40 5,6 C 4,4 C 3,9 C 97 % 987,0 hPa 0,0 l/m 0 min 2 min 0 W/m 0,0 km/h (0 Bft) 95,74 %
05.03.2020 21:42 5,6 C 4,4 C 3,9 C 97 % 987,0 hPa 0,2 l/m 0 min 2 min 0 W/m 0,0 km/h (0 Bft) 97,83 %
05.03.2020 21:44 5,6 C 4,4 C 3,9 C 97 % 987,0 hPa 0,0 l/m 0 min 2 min 0 W/m 0,0 km/h (0 Bft) 100,00 %
05.03.2020 21:46 5,6 C 4,4 C 3,9 C 97 % 987,0 hPa 0,0 l/m 0 min 2 min 0 W/m 0,0 km/h (0 Bft) 100,00 %
05.03.2020 21:48 5,6 C 4,4 C 3,9 C 97 % 987,0 hPa 0,2 l/m 0 min 2 min 0 W/m 0,0 km/h (0 Bft) 100,00 %
05.03.2020 21:50 5,6 C 4,4 C 3,9 C 97 % 987,0 hPa 0,0 l/m 0 min 2 min 0 W/m 0,0 km/h (0 Bft) 100,00 %
05.03.2020 21:52 5,6 C 4,4 C 3,9 C 97 % 986,9 hPa 0,2 l/m 0 min 2 min 0 W/m 0,0 km/h (0 Bft) 100,00 %
05.03.2020 21:54 5,6 C 4,4 C 3,9 C 98 % 986,9 hPa 0,0 l/m 0 min 2 min 0 W/m 0,0 km/h (0 Bft) 100,00 %
05.03.2020 21:56 5,6 C 4,4 C 3,9 C 98 % 986,8 hPa 0,0 l/m 0 min 2 min 0 W/m 0,0 km/h (0 Bft) 100,00 %
05.03.2020 21:58 5,6 C 4,4 C 3,9 C 98 % 986,8 hPa 0,0 l/m 0 min 2 min 0 W/m 0,0 km/h (0 Bft) 100,00 %
05.03.2020 22:00 5,6 C 4,4 C 3,9 C 98 % 986,7 hPa 0,0 l/m 0 min 2 min 0 W/m 0,0 km/h (0 Bft) 100,00 %
05.03.2020 22:02 5,6 C 4,4 C 3,9 C 98 % 986,7 hPa 0,2 l/m 0 min 2 min 0 W/m 0,0 km/h (0 Bft) 97,87 %
05.03.2020 22:04 5,6 C 4,4 C 3,9 C 98 % 986,7 hPa 0,0 l/m 0 min 2 min 0 W/m 0,0 km/h (0 Bft) 100,00 %
05.03.2020 22:06 5,6 C 4,4 C 3,9 C 98 % 986,6 hPa 0,0 l/m 0 min 2 min 0 W/m 0,0 km/h (0 Bft) 100,00 %
05.03.2020 22:08 5,6 C 4,4 C 3,9 C 98 % 986,6 hPa 0,0 l/m 0 min 2 min 0 W/m 0,0 km/h (0 Bft) 97,87 %
05.03.2020 22:10 5,6 C 4,4 C 3,9 C 97 % 986,6 hPa 0,2 l/m 0 min 2 min 0 W/m 0,0 km/h (0 Bft) 97,87 %
05.03.2020 22:12 5,6 C 4,4 C 3,9 C 97 % 986,6 hPa 0,0 l/m 0 min 2 min 0 W/m 0,0 km/h (0 Bft) 100,00 %
05.03.2020 22:14 5,5 C 4,4 C 3,9 C 97 % 986,6 hPa 0,0 l/m 0 min 2 min 0 W/m 0,0 km/h (0 Bft) 100,00 %
05.03.2020 22:16 5,6 C 4,4 C 3,9 C 97 % 986,6 hPa 0,2 l/m 0 min 2 min 0 W/m 0,0 km/h (0 Bft) 100,00 %
05.03.2020 22:18 5,5 C 4,4 C 3,9 C 97 % 986,6 hPa 0,2 l/m 0 min 2 min 0 W/m 0,0 km/h (0 Bft) 100,00 %
05.03.2020 22:20 5,5 C 4,4 C 3,9 C 97 % 986,6 hPa 0,0 l/m 0 min 2 min 0 W/m 0,0 km/h (0 Bft) 97,87 %
05.03.2020 22:22 5,5 C 4,4 C 3,9 C 97 % 986,5 hPa 0,2 l/m 0 min 2 min 0 W/m 0,0 km/h (0 Bft) 97,87 %
05.03.2020 22:24 5,5 C 4,4 C 3,9 C 97 % 986,6 hPa 0,0 l/m 0 min 2 min 0 W/m 0,0 km/h (0 Bft) 97,87 %
05.03.2020 22:26 5,5 C 4,4 C 3,9 C 98 % 986,6 hPa 0,2 l/m 0 min 2 min 0 W/m 0,0 km/h (0 Bft) 97,87 %
05.03.2020 22:28 5,5 C 4,4 C 3,9 C 98 % 986,6 hPa 0,0 l/m 0 min 2 min 0 W/m 0,0 km/h (0 Bft) 95,65 %
05.03.2020 22:30 5,5 C 4,4 C 3,9 C 98 % 986,5 hPa 0,0 l/m 0 min 2 min 0 W/m 0,0 km/h (0 Bft) 97,87 %
05.03.2020 22:32 5,5 C 4,4 C 3,9 C 98 % 986,5 hPa 0,0 l/m 0 min 2 min 0 W/m 0,0 km/h (0 Bft) 97,87 %
05.03.2020 22:34 5,5 C 4,4 C 3,9 C 98 % 986,5 hPa 0,2 l/m 0 min 2 min 0 W/m 0,0 km/h (0 Bft) 97,87 %
05.03.2020 22:36 5,5 C 4,4 C 3,9 C 98 % 986,5 hPa 0,0 l/m 0 min 2 min 0 W/m 0,0 km/h (0 Bft) 97,87 %
05.03.2020 22:38 5,5 C 4,4 C 3,9 C 98 % 986,5 hPa 0,0 l/m 0 min 2 min 0 W/m 0,0 km/h (0 Bft) 97,87 %
05.03.2020 22:40 5,5 C 4,4 C 3,9 C 98 % 986,5 hPa 0,2 l/m 0 min 2 min 0 W/m 0,0 km/h (0 Bft) 97,83 %
05.03.2020 22:42 5,5 C 4,4 C 3,9 C 98 % 986,5 hPa 0,0 l/m 0 min 2 min 0 W/m 0,0 km/h (0 Bft) 95,74 %
05.03.2020 22:44 5,5 C 4,4 C 3,9 C 98 % 986,5 hPa 0,0 l/m 0 min 2 min 0 W/m 0,0 km/h (0 Bft) 97,87 %
05.03.2020 22:46 5,5 C 4,4 C 3,9 C 98 % 986,4 hPa 0,2 l/m 0 min 2 min 0 W/m 0,0 km/h (0 Bft) 54,55 %
05.03.2020 22:48 5,5 C 4,4 C 3,9 C 98 % 986,4 hPa 0,0 l/m 0 min 2 min 0 W/m 0,0 km/h (0 Bft) 97,87 %
05.03.2020 22:50 5,5 C 4,4 C 3,9 C 98 % 986,4 hPa 0,0 l/m 0 min 2 min 0 W/m 0,0 km/h (0 Bft) 93,62 %
05.03.2020 22:52 5,5 C 4,4 C 3,9 C 98 % 986,4 hPa 0,2 l/m 0 min 2 min 0 W/m 0,0 km/h (0 Bft) 95,65 %
05.03.2020 22:54 5,5 C 4,4 C 3,9 C 98 % 986,4 hPa 0,0 l/m 0 min 2 min 0 W/m 0,0 km/h (0 Bft) 93,62 %
05.03.2020 22:56 5,5 C 4,4 C 3,9 C 98 % 986,4 hPa 0,0 l/m 0 min 2 min 0 W/m 0,0 km/h (0 Bft) 95,74 %
05.03.2020 22:58 5,4 C 4,4 C 3,9 C 98 % 986,4 hPa 0,2 l/m 0 min 2 min 0 W/m 0,0 km/h (0 Bft) 95,74 %
05.03.2020 23:00 5,4 C 4,4 C 3,9 C 98 % 986,4 hPa 0,0 l/m 0 min 2 min 0 W/m 0,0 km/h (0 Bft) 93,62 %
05.03.2020 23:02 5,4 C 4,4 C 3,9 C 98 % 986,4 hPa 0,0 l/m 0 min 2 min 0 W/m 0,0 km/h (0 Bft) 95,74 %
05.03.2020 23:04 5,4 C 4,4 C 3,9 C 98 % 986,4 hPa 0,0 l/m 0 min 2 min 0 W/m 0,0 km/h (0 Bft) 95,65 %
05.03.2020 23:06 5,4 C 4,4 C 3,9 C 98 % 986,3 hPa 0,2 l/m 0 min 2 min 0 W/m 0,0 km/h (0 Bft) 95,74 %
05.03.2020 23:08 5,4 C 4,4 C 3,9 C 98 % 986,3 hPa 0,0 l/m 0 min 2 min 0 W/m 0,0 km/h (0 Bft) 97,87 %
05.03.2020 23:10 5,4 C 4,4 C 3,9 C 98 % 986,4 hPa 0,0 l/m 0 min 2 min 0 W/m 0,0 km/h (0 Bft) 97,87 %
05.03.2020 23:12 5,4 C 4,4 C 3,9 C 98 % 986,4 hPa 0,0 l/m 0 min 2 min 0 W/m 0,0 km/h (0 Bft) 95,74 %
05.03.2020 23:14 5,4 C 4,4 C 3,9 C 98 % 986,3 hPa 0,0 l/m 0 min 2 min 0 W/m 0,0 km/h (0 Bft) 95,65 %
05.03.2020 23:16 5,4 C 4,4 C 3,9 C 98 % 986,4 hPa 0,0 l/m 0 min 2 min 0 W/m 0,0 km/h (0 Bft) 97,87 %
05.03.2020 23:18 5,4 C 4,4 C 3,9 C 98 % 986,4 hPa 0,0 l/m 0 min 2 min 0 W/m 0,0 km/h (0 Bft) 95,74 %
05.03.2020 23:20 5,4 C 4,4 C 3,9 C 98 % 986,4 hPa 0,0 l/m 0 min 2 min 0 W/m 0,0 km/h (0 Bft) 97,87 %
05.03.2020 23:22 5,4 C 4,4 C 3,9 C 98 % 986,3 hPa 0,2 l/m 0 min 2 min 0 W/m 0,0 km/h (0 Bft) 97,87 %
05.03.2020 23:24 5,4 C 4,4 C 3,9 C 98 % 986,4 hPa 0,0 l/m 0 min 2 min 0 W/m 0,0 km/h (0 Bft) 97,87 %
05.03.2020 23:26 5,4 C 4,4 C 3,9 C 98 % 986,4 hPa 0,0 l/m 0 min 2 min 0 W/m 0,0 km/h (0 Bft) 97,83 %
05.03.2020 23:28 5,4 C 4,4 C 3,9 C 98 % 986,4 hPa 0,2 l/m 0 min 2 min 0 W/m 0,0 km/h (0 Bft) 97,87 %
05.03.2020 23:30 5,4 C 4,4 C 3,9 C 98 % 986,3 hPa 0,0 l/m 0 min 2 min 0 W/m 0,0 km/h (0 Bft) 95,74 %
05.03.2020 23:32 5,4 C 4,4 C 3,9 C 98 % 986,3 hPa 0,0 l/m 0 min 2 min 0 W/m 0,0 km/h (0 Bft) 97,87 %
05.03.2020 23:34 5,4 C 4,4 C 3,9 C 98 % 986,3 hPa 0,0 l/m 0 min 2 min 0 W/m 0,0 km/h (0 Bft) 97,87 %
05.03.2020 23:36 5,4 C 4,4 C 3,9 C 98 % 986,3 hPa 0,0 l/m 0 min 2 min 0 W/m 0,0 km/h (0 Bft) 100,00 %
05.03.2020 23:38 5,4 C 4,4 C 3,9 C 98 % 986,2 hPa 0,0 l/m 0 min 2 min 0 W/m 0,0 km/h (0 Bft) 100,00 %
05.03.2020 23:40 5,4 C 4,4 C 3,9 C 98 % 986,2 hPa 0,0 l/m 0 min 2 min 0 W/m 0,0 km/h (0 Bft) 100,00 %
05.03.2020 23:42 5,4 C 4,4 C 3,9 C 98 % 986,2 hPa 0,0 l/m 0 min 2 min 0 W/m 0,0 km/h (0 Bft) 100,00 %
05.03.2020 23:44 5,4 C 4,4 C 3,9 C 98 % 986,2 hPa 0,2 l/m 0 min 2 min 0 W/m 0,0 km/h (0 Bft) 97,87 %
05.03.2020 23:46 5,4 C 4,4 C 3,9 C 98 % 986,1 hPa 0,0 l/m 0 min 2 min 0 W/m 0,0 km/h (0 Bft) 100,00 %
05.03.2020 23:48 5,4 C 4,4 C 3,9 C 98 % 986,1 hPa 0,0 l/m 0 min 2 min 0 W/m 0,0 km/h (0 Bft) 100,00 %
05.03.2020 23:50 5,4 C 4,4 C 3,9 C 98 % 986,1 hPa 0,0 l/m 0 min 2 min 0 W/m 0,0 km/h (0 Bft) 100,00 %
05.03.2020 23:52 5,4 C 4,4 C 3,9 C 98 % 986,0 hPa 0,0 l/m 0 min 2 min 0 W/m 0,0 km/h (0 Bft) 100,00 %
05.03.2020 23:54 5,4 C 4,4 C 3,9 C 98 % 986,0 hPa 0,0 l/m 0 min 2 min 0 W/m 0,0 km/h (0 Bft) 100,00 %
05.03.2020 23:56 5,4 C 4,4 C 3,9 C 98 % 986,1 hPa 0,0 l/m 0 min 2 min 0 W/m 0,0 km/h (0 Bft) 100,00 %
05.03.2020 23:58 5,4 C 4,4 C 3,9 C 98 % 986,0 hPa 0,0 l/m 0 min 2 min 0 W/m 0,0 km/h (0 Bft) 56,52 %
_ Min-Zeit 03:28 02:02 02:10 11:46 23:52 - - - - 00:00 00:02
Minimum _ 4,7 C 3,3 C 2,8 C 89 % 986,0 hPa - - - - 0,0 km/h (0 Bft) 12,50 %
_ Max-Zeit 14:06 11:16 11:16 21:54 00:00 02:04 00:00 06:08 10:40 11:36 00:00
Maximum _ 7,4 C 7,2 C 6,7 C 98 % 1007,8 hPa 0,2 l/m 0 min 4 min 177 W/m 38,6 km/h
O-SO (5 Bft)
100,00 %
Durchschnitt _ 5,8 C 4,9 C 4,5 C 94 % 996,0 hPa #12,6 l/m #0 min. #12:10 h 71 W/m 12,0 km/h (2 Bft) 97,16 %
© 2020 W. Hausmann